Air Quality Table

TIMESTAMP NO2 SO2 O3 PM10 PM2.5 TEMP HUM WS WD NO
2022-06-26 08:00 0.75 µg/m3 1.23 µg/m3 93.76 µg/m3 45.8 µg/m3 11.26 µg/m3 28.95 °C 44.78 % 5.85 m/s 147.94 Deg 0.15 µg/m3
2022-06-26 07:00 1.48 µg/m3 0.93 µg/m3 85.57 µg/m3 50.2 µg/m3 12.25 µg/m3 28.84 °C 36.65 % 5.09 m/s 135.11 Deg 0.15 µg/m3
2022-06-26 06:00 3.91 µg/m3 0.75 µg/m3 72.04 µg/m3 48.8 µg/m3 10.93 µg/m3 28.76 °C 26.73 % 2.54 m/s 100.35 Deg 0.13 µg/m3
2022-06-26 05:00 2.02 µg/m3 0.49 µg/m3 74.1 µg/m3 39.42 µg/m3 8.35 µg/m3 29.47 °C 24.38 % 2.89 m/s 96.99 Deg 0.06 µg/m3
2022-06-26 04:00 2.99 µg/m3 0.68 µg/m3 74.28 µg/m3 42.03 µg/m3 10.23 µg/m3 27.69 °C 36.32 % 3.03 m/s 164.92 Deg 0.06 µg/m3
2022-06-26 03:00 1.8 µg/m3 0.52 µg/m3 78.69 µg/m3 43.69 µg/m3 11.35 µg/m3 28.22 °C 30.57 % 4.57 m/s 86.94 Deg 0.05 µg/m3
2022-06-26 02:00 4.02 µg/m3 0.86 µg/m3 76.73 µg/m3 79.42 µg/m3 34.66 µg/m3 28.47 °C 30.19 % 2.85 m/s 59.38 Deg 0.06 µg/m3
2022-06-26 01:00 13.93 µg/m3 3.05 µg/m3 67.56 µg/m3 41.97 µg/m3 11.82 µg/m3 29.02 °C 30.16 % 3.41 m/s 74.83 Deg 0.07 µg/m3
2022-06-26 00:00 9.18 µg/m3 1.02 µg/m3 72.87 µg/m3 34.44 µg/m3 8.82 µg/m3 29.24 °C 29.3 % 3.47 m/s 37.28 Deg 0.07 µg/m3
2022-06-25 23:00 4.81 µg/m3 0.73 µg/m3 88.72 µg/m3 36.93 µg/m3 9.24 µg/m3 28.82 °C 33.09 % 2.35 m/s 160.3 Deg 0.06 µg/m3
2022-06-25 22:00 1.61 µg/m3 0.61 µg/m3 94.88 µg/m3 28.51 µg/m3 7.7 µg/m3 28.99 °C 27.74 % 3.28 m/s 116.67 Deg 0.05 µg/m3
2022-06-25 21:00 4.52 µg/m3 0.78 µg/m3 88.55 µg/m3 26.72 µg/m3 6.62 µg/m3 27.64 °C 38.65 % 2.89 m/s 97.88 Deg 0.06 µg/m3
2022-06-25 20:00 2.06 µg/m3 0.65 µg/m3 94 µg/m3 27.04 µg/m3 8.02 µg/m3 27.93 °C 40.86 % 2.31 m/s 126.51 Deg 0.06 µg/m3
2022-06-25 19:00 1.57 µg/m3 0.76 µg/m3 96 µg/m3 24.62 µg/m3 8.02 µg/m3 28.91 °C 39.29 % 2.55 m/s 118.08 Deg 0.12 µg/m3
2022-06-25 18:00 0.44 µg/m3 0.7 µg/m3 99.71 µg/m3 29.85 µg/m3 7.04 µg/m3 29.46 °C 39.25 % 4.04 m/s 132.34 Deg 0.09 µg/m3
2022-06-25 17:00 0.69 µg/m3 0.78 µg/m3 101.45 µg/m3 24.55 µg/m3 6.57 µg/m3 29.47 °C 42.52 % 5.11 m/s 93.49 Deg 0.14 µg/m3
2022-06-25 16:00 4.62 µg/m3 1 µg/m3 105.61 µg/m3 10.33 µg/m3 5.91 µg/m3 30.09 °C 50.03 % 3.86 m/s 166.18 Deg 1.65 µg/m3
2022-06-25 15:00 2.99 µg/m3 1.22 µg/m3 99.7 µg/m3 13.83 µg/m3 6.57 µg/m3 30.8 °C 40.99 % 2.4 m/s 255.27 Deg 0.46 µg/m3
2022-06-25 14:00 3.3 µg/m3 0.89 µg/m3 96.04 µg/m3 14.73 µg/m3 8.02 µg/m3 30.59 °C 45.68 % 2.77 m/s 92.22 Deg 0.53 µg/m3
2022-06-25 13:00 4.34 µg/m3 1.13 µg/m3 89.02 µg/m3 12.81 µg/m3 5.21 µg/m3 31.58 °C 34.77 % 2.14 m/s 221.82 Deg 0.63 µg/m3
2022-06-25 12:00 2.62 µg/m3 0.53 µg/m3 76.48 µg/m3 14.86 µg/m3 5.87 µg/m3 31.79 °C 20.11 % 3.72 m/s 282.1 Deg 0.17 µg/m3
2022-06-25 11:00 2.57 µg/m3 0.5 µg/m3 75.7 µg/m3 11.47 µg/m3 4.98 µg/m3 31.4 °C 17.25 % 2.77 m/s 270.71 Deg 0.24 µg/m3
2022-06-25 10:00 10.73 µg/m3 2.23 µg/m3 78.1 µg/m3 9.5 µg/m3 5.16 µg/m3 29.29 °C 37.2 % 2.53 m/s 276.16 Deg 2.6 µg/m3
2022-06-25 09:00 2.51 µg/m3 0.49 µg/m3 75.03 µg/m3 8.99 µg/m3 5.68 µg/m3 31.34 °C 19.85 % 1.56 m/s 185.36 Deg 0.17 µg/m3
2022-06-25 08:00 4.22 µg/m3 0.98 µg/m3 76.22 µg/m3 11.98 µg/m3 5.16 µg/m3 30.6 °C 24.74 % 0.8 m/s 191.9 Deg 0.42 µg/m3
2022-06-25 07:00 6.87 µg/m3 0.95 µg/m3 75.17 µg/m3 7.97 µg/m3 3.85 µg/m3 28.91 °C 25.11 % 1.01 m/s 76.59 Deg 0.49 µg/m3
2022-06-25 06:00 3.59 µg/m3 0.57 µg/m3 80.24 µg/m3 7.65 µg/m3 4.32 µg/m3 28.44 °C 22.72 % 1.12 m/s 164.11 Deg 0.08 µg/m3
2022-06-25 05:00 3.22 µg/m3 0.31 µg/m3 76.1 µg/m3 5.99 µg/m3 4.32 µg/m3 29.23 °C 18.56 % 0.83 m/s 57.01 Deg 0.05 µg/m3
2022-06-25 04:00 4.23 µg/m3 0.36 µg/m3 74.72 µg/m3 4.14 µg/m3 3.15 µg/m3 29.43 °C 19.36 % 1.1 m/s 180.45 Deg 0.05 µg/m3
2022-06-25 03:00 5.41 µg/m3 0.51 µg/m3 74.1 µg/m3 4.2 µg/m3 5.35 µg/m3 29.59 °C 18.49 % 0.88 m/s 149.96 Deg 0.06 µg/m3
2022-06-25 02:00 3.39 µg/m3 1.03 µg/m3 83.52 µg/m3 5.16 µg/m3 7.41 µg/m3 28.32 °C 31.04 % 1.96 m/s 223.52 Deg 0.05 µg/m3
2022-06-25 01:00 1.61 µg/m3 0.63 µg/m3 75.19 µg/m3 0.25 µg/m3 3.1 µg/m3 26.54 °C 58.47 % 2.2 m/s 316.6 Deg 0.05 µg/m3
2022-06-25 00:00 0.49 µg/m3 0.45 µg/m3 78.57 µg/m3 0.25 µg/m3 3.1 µg/m3 25.87 °C 65.34 % 2.58 m/s 250.57 Deg 0.06 µg/m3
2022-06-24 23:00 -1.51 µg/m3 0.62 µg/m3 51.09 µg/m3 -0.78 µg/m3 2.63 µg/m3 26.82 °C 49.52 % 1.67 m/s 212.36 Deg -1.12 µg/m3
2022-06-24 22:00 5.86 µg/m3 0.54 µg/m3 72.51 µg/m3 7.07 µg/m3 6.76 µg/m3 25.98 °C 64.59 % 1.39 m/s 154 Deg 0.06 µg/m3
2022-06-24 21:00 3.77 µg/m3 0.45 µg/m3 70.56 µg/m3 19.39 µg/m3 5.77 µg/m3 25.8 °C 68.98 % 1.65 m/s 162.66 Deg 0.06 µg/m3
2022-06-24 20:00 1.64 µg/m3 0.43 µg/m3 71.78 µg/m3 132.69 µg/m3 11.64 µg/m3 25.86 °C 75.12 % 2.08 m/s 195.3 Deg 1.38 µg/m3
2022-06-24 19:00 2.41 µg/m3 0.87 µg/m3 61.58 µg/m3 7.77 µg/m3 9.52 µg/m3 27.35 °C 55.53 % 2.42 m/s 175.77 Deg 2.29 µg/m3
2022-06-24 18:00 -0.07 µg/m3 0.94 µg/m3 70.73 µg/m3 3.56 µg/m3 8.35 µg/m3 27.16 °C 66.87 % 3.74 m/s 129.53 Deg 0.14 µg/m3
2022-06-24 17:00 0.57 µg/m3 1.03 µg/m3 87.12 µg/m3 5.09 µg/m3 8.92 µg/m3 27.6 °C 63.3 % 3.57 m/s 117.33 Deg 0.17 µg/m3
2022-06-24 16:00 0.59 µg/m3 0.93 µg/m3 100.65 µg/m3 6.69 µg/m3 8.12 µg/m3 27.67 °C 65.01 % 3.84 m/s 171.76 Deg 0.14 µg/m3
2022-06-24 15:00 1.19 µg/m3 1.18 µg/m3 96.78 µg/m3 6.63 µg/m3 9.29 µg/m3 28.41 °C 54.33 % 3.59 m/s 126.58 Deg 0.2 µg/m3
2022-06-24 14:00 3.75 µg/m3 1.13 µg/m3 87.4 µg/m3 3.95 µg/m3 8.12 µg/m3 29.76 °C 41.46 % 3.19 m/s 177.15 Deg 0.69 µg/m3
2022-06-24 13:00 4.93 µg/m3 1.5 µg/m3 79.9 µg/m3 5.86 µg/m3 6.57 µg/m3 28.84 °C 42.25 % 4.3 m/s 191.94 Deg 1.2 µg/m3
2022-06-24 12:00 6.99 µg/m3 2.26 µg/m3 76.21 µg/m3 9.5 µg/m3 7.84 µg/m3 28.37 °C 46.37 % 4.47 m/s 169.07 Deg 2.07 µg/m3
2022-06-24 11:00 9.87 µg/m3 2.13 µg/m3 70.5 µg/m3 7.33 µg/m3 7.56 µg/m3 27.37 °C 59.5 % 4.17 m/s 252.32 Deg 3.18 µg/m3
2022-06-24 10:00 2.34 µg/m3 0.65 µg/m3 82.82 µg/m3 7.39 µg/m3 8.82 µg/m3 26.38 °C 72.62 % 4.66 m/s 175.91 Deg 0.68 µg/m3
2022-06-24 09:00 0.68 µg/m3 0.96 µg/m3 89.16 µg/m3 36.42 µg/m3 8.73 µg/m3 26.87 °C 61.23 % 3.83 m/s 216.11 Deg 0.18 µg/m3
2022-06-24 08:00 3.08 µg/m3 1.01 µg/m3 88.3 µg/m3 7.71 µg/m3 5.54 µg/m3 26.9 °C 57.05 % 2.81 m/s 220.52 Deg 2.04 µg/m3
2022-06-24 07:00 7.21 µg/m3 0.54 µg/m3 79.03 µg/m3 8.09 µg/m3 10.84 µg/m3 25.41 °C 71.03 % 2.09 m/s 253.89 Deg 0.79 µg/m3
2022-06-24 06:00 1.73 µg/m3 0.36 µg/m3 79.42 µg/m3 6.75 µg/m3 8.92 µg/m3 24.32 °C 81.14 % 1.89 m/s 251.44 Deg 0.15 µg/m3
2022-06-24 05:00 0.37 µg/m3 0.29 µg/m3 87.41 µg/m3 7.07 µg/m3 9.01 µg/m3 24.47 °C 78.79 % 1.99 m/s 224.28 Deg 0.06 µg/m3
2022-06-24 04:00 1.31 µg/m3 0.26 µg/m3 78.58 µg/m3 5.6 µg/m3 8.87 µg/m3 24.12 °C 82.27 % 2.27 m/s 199.75 Deg 0.06 µg/m3
2022-06-24 03:00 1.17 µg/m3 0.28 µg/m3 83.19 µg/m3 6.37 µg/m3 7.65 µg/m3 23.89 °C 89.91 % 2.68 m/s 209.8 Deg 0.06 µg/m3
2022-06-24 02:00 1.04 µg/m3 0.4 µg/m3 92.67 µg/m3 3.95 µg/m3 6.95 µg/m3 24.15 °C 81.77 % 1.81 m/s 201.19 Deg 0.06 µg/m3
2022-06-24 01:00 1.19 µg/m3 0.68 µg/m3 104.46 µg/m3 5.54 µg/m3 8.68 µg/m3 26.3 °C 54.32 % 1.52 m/s 202.28 Deg 0.06 µg/m3
2022-06-24 00:00 0.64 µg/m3 0.64 µg/m3 103.57 µg/m3 4.71 µg/m3 8.87 µg/m3 26.2 °C 58.15 % 1.5 m/s 269.63 Deg 0.06 µg/m3
2022-06-23 23:00 5.59 µg/m3 0.58 µg/m3 94.75 µg/m3 5.09 µg/m3 6.76 µg/m3 25.46 °C 71.18 % 1.59 m/s 309.19 Deg 0.06 µg/m3
2022-06-23 22:00 0.69 µg/m3 0.39 µg/m3 96.76 µg/m3 3.75 µg/m3 9.52 µg/m3 25.28 °C 74.14 % 1.79 m/s 307.78 Deg 0.06 µg/m3
2022-06-23 21:00 -0.05 µg/m3 0.38 µg/m3 92.78 µg/m3 9.82 µg/m3 7.6 µg/m3 25.17 °C 74.5 % 2.5 m/s 237.32 Deg 0.06 µg/m3
2022-06-23 20:00 9.56 µg/m3 0.34 µg/m3 85.4 µg/m3 5.54 µg/m3 6.76 µg/m3 25.09 °C 78.62 % 4.34 m/s 206.74 Deg 0.22 µg/m3
2022-06-23 19:00 1.52 µg/m3 0.24 µg/m3 91.17 µg/m3 6.82 µg/m3 8.4 µg/m3 25.07 °C 83.37 % 4.68 m/s 219.86 Deg 0.47 µg/m3
2022-06-23 18:00 -0.09 µg/m3 0.29 µg/m3 87.52 µg/m3 5.54 µg/m3 7.74 µg/m3 25.53 °C 82.06 % 4.68 m/s 203.27 Deg 0.09 µg/m3
2022-06-23 17:00 -0.36 µg/m3 0.35 µg/m3 89.01 µg/m3 4.2 µg/m3 9.1 µg/m3 25.89 °C 77.47 % 4.85 m/s 154.28 Deg 0.07 µg/m3
2022-06-23 16:00 -0.31 µg/m3 0.31 µg/m3 90.42 µg/m3 5.92 µg/m3 5.63 µg/m3 25.95 °C 77.16 % 5.27 m/s 165.59 Deg 0.08 µg/m3
2022-06-23 15:00 -0.26 µg/m3 0.36 µg/m3 90.52 µg/m3 5.8 µg/m3 8.07 µg/m3 26.04 °C 74.77 % 5.31 m/s 136.64 Deg 0.08 µg/m3
2022-06-23 14:00 -0.14 µg/m3 0.42 µg/m3 93.78 µg/m3 3.37 µg/m3 7.93 µg/m3 26.25 °C 71.54 % 5.53 m/s 137.75 Deg 0.09 µg/m3
2022-06-23 13:00 -0.02 µg/m3 0.41 µg/m3 94.14 µg/m3 5.22 µg/m3 5.49 µg/m3 26.39 °C 68.84 % 5.2 m/s 207.63 Deg 0.1 µg/m3
2022-06-23 12:00 0.4 µg/m3 0.37 µg/m3 90.88 µg/m3 6.05 µg/m3 6.99 µg/m3 26.26 °C 68.11 % 5.45 m/s 208.61 Deg 0.2 µg/m3
2022-06-23 11:00 -0.1 µg/m3 0.41 µg/m3 93.09 µg/m3 5.09 µg/m3 4.69 µg/m3 26.44 °C 65.2 % 4.45 m/s 176.54 Deg 0.1 µg/m3
2022-06-23 10:00 0.68 µg/m3 0.69 µg/m3 93.26 µg/m3 5.54 µg/m3 4.46 µg/m3 26.05 °C 67.12 % 3.79 m/s 111.76 Deg 0.21 µg/m3
2022-06-23 09:00 4.86 µg/m3 0.88 µg/m3 88.76 µg/m3 3.37 µg/m3 8.31 µg/m3 25.66 °C 67.25 % 3.9 m/s 154.9 Deg 1.08 µg/m3
2022-06-23 08:00 1.34 µg/m3 0.35 µg/m3 86.44 µg/m3 1.78 µg/m3 9.9 µg/m3 25.09 °C 71.7 % 3.54 m/s 165.29 Deg 0.3 µg/m3
2022-06-23 07:00 2.88 µg/m3 0.27 µg/m3 77.28 µg/m3 3.75 µg/m3 7.79 µg/m3 24.32 °C 79.93 % 3.15 m/s 250 Deg 0.4 µg/m3
2022-06-23 06:00 4.12 µg/m3 0.22 µg/m3 71.75 µg/m3 3.37 µg/m3 7.32 µg/m3 23.53 °C 86.4 % 3.11 m/s 243.73 Deg 0.16 µg/m3
2022-06-23 05:00 0.7 µg/m3 0.24 µg/m3 77.43 µg/m3 3.12 µg/m3 9.06 µg/m3 23.45 °C 82.55 % 2.65 m/s 216.85 Deg 0.06 µg/m3
2022-06-23 04:00 0.41 µg/m3 0.3 µg/m3 86.76 µg/m3 3.95 µg/m3 7.13 µg/m3 23.84 °C 69.88 % 2.57 m/s 209.53 Deg 0.05 µg/m3
2022-06-23 03:00 -0.22 µg/m3 0.27 µg/m3 93.55 µg/m3 1.84 µg/m3 7.04 µg/m3 24.34 °C 62.2 % 1.77 m/s 206.73 Deg 0.06 µg/m3
2022-06-23 02:00 -0.09 µg/m3 0.29 µg/m3 93.35 µg/m3 3.75 µg/m3 6.85 µg/m3 24.3 °C 61.16 % 1.68 m/s 173.82 Deg 0.06 µg/m3
2022-06-23 01:00 -0.29 µg/m3 0.32 µg/m3 92.8 µg/m3 3.12 µg/m3 7.37 µg/m3 24.56 °C 62.01 % 1.68 m/s 191.01 Deg 0.05 µg/m3
2022-06-23 00:00 -0.4 µg/m3 0.26 µg/m3 91.44 µg/m3 2.54 µg/m3 7.56 µg/m3 24.47 °C 63.55 % 1.55 m/s 186.72 Deg 0.06 µg/m3
2022-06-22 23:00 -0.31 µg/m3 0.21 µg/m3 75.95 µg/m3 3.24 µg/m3 7.74 µg/m3 23.47 °C 87.28 % 2.07 m/s 222.36 Deg 0.06 µg/m3
2022-06-22 22:00 -0.02 µg/m3 0.18 µg/m3 77.78 µg/m3 4.26 µg/m3 5.87 µg/m3 23.67 °C 87.61 % 2.9 m/s 257.24 Deg 0.07 µg/m3
2022-06-22 21:00 2.1 µg/m3 0.26 µg/m3 80.16 µg/m3 4.78 µg/m3 7.32 µg/m3 23.9 °C 83.98 % 2.46 m/s 254.96 Deg 0.06 µg/m3
2022-06-22 20:00 0.93 µg/m3 0.18 µg/m3 79.26 µg/m3 4.2 µg/m3 8.92 µg/m3 24.03 °C 84.78 % 2.59 m/s 238.82 Deg 0.06 µg/m3
2022-06-22 19:00 -0.5 µg/m3 0.17 µg/m3 81.45 µg/m3 4.26 µg/m3 4.88 µg/m3 24.51 °C 84.17 % 3.56 m/s 238.66 Deg 0.05 µg/m3
2022-06-22 18:00 -0.46 µg/m3 0.23 µg/m3 80.48 µg/m3 4.07 µg/m3 7.56 µg/m3 24.89 °C 82.04 % 3.78 m/s 192.97 Deg 0.07 µg/m3
2022-06-22 17:00 -0.39 µg/m3 0.22 µg/m3 79.95 µg/m3 4.39 µg/m3 7.13 µg/m3 25.34 °C 80.33 % 3.56 m/s 135.52 Deg 0.07 µg/m3
2022-06-22 16:00 -0.25 µg/m3 0.23 µg/m3 80.9 µg/m3 5.92 µg/m3 7.88 µg/m3 25.56 °C 77.85 % 3.87 m/s 202.49 Deg 0.09 µg/m3
2022-06-22 15:00 -0.28 µg/m3 0.22 µg/m3 80.88 µg/m3 4.33 µg/m3 7.74 µg/m3 25.55 °C 78.74 % 4.39 m/s 177.55 Deg 0.08 µg/m3
2022-06-22 14:00 -0.22 µg/m3 0.17 µg/m3 85.68 µg/m3 3.56 µg/m3 6.71 µg/m3 25.7 °C 76.99 % 4.87 m/s 178 Deg 0.08 µg/m3
2022-06-22 13:00 -0.03 µg/m3 -0.91 µg/m3 88.77 µg/m3 5.29 µg/m3 8.77 µg/m3 25.67 °C 77.33 % 5.15 m/s 189.85 Deg 0.1 µg/m3
2022-06-22 12:00 0.01 µg/m3 -5.66 µg/m3 83.84 µg/m3 -0.78 µg/m3 2.63 µg/m3 24.97 °C 83.32 % 5.14 m/s 223.48 Deg 0.11 µg/m3
2022-06-22 11:00 -0.46 µg/m3 -8.97 µg/m3 47.62 µg/m3 -0.78 µg/m3 2.63 µg/m3 24.71 °C 87.2 % 4.23 m/s 224.82 Deg 0.08 µg/m3
2022-06-22 10:00 -4.55 µg/m3 -0.02 µg/m3 0 µg/m3 -0.78 µg/m3 2.63 µg/m3 24.62 °C 88.24 % 3.43 m/s 228.73 Deg -2.75 µg/m3
2022-06-22 09:00 0 µg/m3 0 µg/m3 0 µg/m3 µg/m3 µg/m3 °C % m/s Deg 0 µg/m3
2022-06-22 08:00 0 µg/m3 0 µg/m3 0 µg/m3 µg/m3 µg/m3 °C % m/s Deg 0 µg/m3
2022-06-22 07:00 0 µg/m3 0 µg/m3 0 µg/m3 µg/m3 µg/m3 °C % m/s Deg 0 µg/m3
2022-06-22 06:00 0 µg/m3 0 µg/m3 0 µg/m3 µg/m3 µg/m3 °C % m/s Deg 0 µg/m3
2022-06-22 05:00 0 µg/m3 0 µg/m3 0 µg/m3 µg/m3 µg/m3 °C % m/s Deg 0 µg/m3
2022-06-22 04:00 0 µg/m3 0 µg/m3 0 µg/m3 µg/m3 µg/m3 °C % m/s Deg 0 µg/m3
2022-06-22 03:00 0 µg/m3 0 µg/m3 0 µg/m3 µg/m3 µg/m3 °C % m/s Deg 0 µg/m3
2022-06-22 02:00 0 µg/m3 0 µg/m3 0 µg/m3 µg/m3 µg/m3 °C % m/s Deg 0 µg/m3
2022-06-22 01:00 0 µg/m3 0 µg/m3 0 µg/m3 µg/m3 µg/m3 °C % m/s Deg 0 µg/m3
2022-06-22 00:00 0 µg/m3 0 µg/m3 0 µg/m3 µg/m3 µg/m3 °C % m/s Deg 0 µg/m3
2022-06-21 23:00 0 µg/m3 0 µg/m3 0 µg/m3 µg/m3 µg/m3 °C % m/s Deg 0 µg/m3
2022-06-21 22:00 -0.4 µg/m3 0.27 µg/m3 92.6 µg/m3 µg/m3 µg/m3 23.16 °C 91.96 % 3.28 m/s 237.32 Deg 0.06 µg/m3
2022-06-21 21:00 -0.38 µg/m3 0.3 µg/m3 90.52 µg/m3 5.54 µg/m3 7.79 µg/m3 23.19 °C 89.31 % 3.16 m/s 239.96 Deg 0.06 µg/m3
2022-06-21 20:00 -0.31 µg/m3 0.29 µg/m3 95.8 µg/m3 6.18 µg/m3 8.32 µg/m3 23.39 °C 87.61 % 3.61 m/s 241.97 Deg 0.07 µg/m3
2022-06-21 19:00 -0.36 µg/m3 0.35 µg/m3 96.34 µg/m3 5.22 µg/m3 8.15 µg/m3 23.94 °C 82.72 % 4.12 m/s 197.83 Deg 0.06 µg/m3
2022-06-21 18:00 -0.26 µg/m3 0.44 µg/m3 95.49 µg/m3 4.9 µg/m3 7.29 µg/m3 24.43 °C 77.96 % 5.05 m/s 163.38 Deg 0.07 µg/m3
2022-06-21 17:00 -0.12 µg/m3 0.49 µg/m3 99 µg/m3 7.52 µg/m3 8.34 µg/m3 24.65 °C 76.38 % 5.26 m/s 180.38 Deg 0.09 µg/m3
2022-06-21 16:00 -0 µg/m3 0.56 µg/m3 104.32 µg/m3 12.81 µg/m3 7.54 µg/m3 24.9 °C 74.65 % 4.78 m/s 167.57 Deg 0.11 µg/m3
2022-06-21 15:00 0.32 µg/m3 0.52 µg/m3 104.08 µg/m3 7.07 µg/m3 7.94 µg/m3 24.89 °C 74.43 % 4.54 m/s 163.46 Deg 0.12 µg/m3
2022-06-21 14:00 -0.08 µg/m3 0.51 µg/m3 111.47 µg/m3 12.11 µg/m3 8.21 µg/m3 24.78 °C 77.9 % 4.54 m/s 173.76 Deg 0.08 µg/m3
2022-06-21 13:00 0.64 µg/m3 0.6 µg/m3 116.84 µg/m3 8.48 µg/m3 7.93 µg/m3 24.42 °C 80.34 % 4.64 m/s 158.88 Deg 0.15 µg/m3
2022-06-21 12:00 0.5 µg/m3 0.6 µg/m3 118.02 µg/m3 5.86 µg/m3 7.8 µg/m3 24.68 °C 75.37 % 3.98 m/s 132.64 Deg 0.17 µg/m3
2022-06-21 11:00 1.76 µg/m3 0.72 µg/m3 119.98 µg/m3 4.39 µg/m3 7.47 µg/m3 24.57 °C 73.07 % 3.77 m/s 208.23 Deg 0.34 µg/m3
2022-06-21 10:00 -0.12 µg/m3 0.53 µg/m3 114.16 µg/m3 4.39 µg/m3 7.82 µg/m3 24.41 °C 73.32 % 3.52 m/s 148.06 Deg 0.16 µg/m3
2022-06-21 09:00 0 µg/m3 0.73 µg/m3 115.91 µg/m3 5.54 µg/m3 8.58 µg/m3 24.19 °C 73.33 % 3.36 m/s 151.16 Deg 0 µg/m3
2022-06-21 08:00 0.54 µg/m3 0.52 µg/m3 118.01 µg/m3 6.18 µg/m3 8.28 µg/m3 23.93 °C 74.84 % 2.6 m/s 203.43 Deg -0.69 µg/m3
2022-06-21 07:00 0.53 µg/m3 0.41 µg/m3 116.25 µg/m3 7.45 µg/m3 8.49 µg/m3 23.44 °C 78.49 % 1.75 m/s 233.87 Deg -0.69 µg/m3
2022-06-21 06:00 0.4 µg/m3 0.32 µg/m3 117.6 µg/m3 7.07 µg/m3 7.52 µg/m3 22.25 °C 88.03 % 1.33 m/s 278.58 Deg -0.72 µg/m3
2022-06-21 05:00 0.24 µg/m3 0.32 µg/m3 121.35 µg/m3 5.92 µg/m3 8.54 µg/m3 21.92 °C 90.96 % 1.4 m/s 295.9 Deg -0.72 µg/m3
2022-06-21 04:00 0.29 µg/m3 0.4 µg/m3 123.05 µg/m3 7.52 µg/m3 10.03 µg/m3 22.27 °C 86.32 % 1.41 m/s 300.92 Deg -0.72 µg/m3
2022-06-21 03:00 0.64 µg/m3 0.44 µg/m3 124.73 µg/m3 5.86 µg/m3 9.67 µg/m3 22.31 °C 85.3 % 1.46 m/s 270.88 Deg -0.72 µg/m3
2022-06-21 02:00 0.48 µg/m3 0.45 µg/m3 130.03 µg/m3 7.45 µg/m3 9.82 µg/m3 22.54 °C 82.67 % 1.4 m/s 231.69 Deg -0.73 µg/m3
2022-06-21 01:00 0.39 µg/m3 0.44 µg/m3 133.72 µg/m3 5.41 µg/m3 10.19 µg/m3 22.75 °C 83.61 % 0.47 m/s 285.3 Deg -0.73 µg/m3
2022-06-21 00:00 0.45 µg/m3 0.57 µg/m3 134.36 µg/m3 7.45 µg/m3 8.27 µg/m3 23.19 °C 77.36 % 1.16 m/s 256.12 Deg -0.72 µg/m3
2022-06-20 23:00 0.53 µg/m3 0.62 µg/m3 136.46 µg/m3 7.9 µg/m3 9.18 µg/m3 23.33 °C 74.14 % 0.83 m/s 219.7 Deg -0.73 µg/m3
2022-06-20 22:00 0.66 µg/m3 0.64 µg/m3 135.38 µg/m3 7.65 µg/m3 9.43 µg/m3 23.42 °C 73.43 % 0.93 m/s 225.48 Deg -0.72 µg/m3
2022-06-20 21:00 0.89 µg/m3 0.61 µg/m3 128.82 µg/m3 7.45 µg/m3 8.99 µg/m3 23.46 °C 74.63 % 0.86 m/s 211.55 Deg -0.72 µg/m3
2022-06-20 20:00 0.58 µg/m3 0.57 µg/m3 126.48 µg/m3 8.54 µg/m3 10.63 µg/m3 23.58 °C 75.46 % 1.09 m/s 175.98 Deg -0.73 µg/m3
2022-06-20 19:00 0.78 µg/m3 0.63 µg/m3 136.83 µg/m3 8.54 µg/m3 9.21 µg/m3 24.16 °C 74.55 % 2.4 m/s 115.55 Deg -0.72 µg/m3
2022-06-20 18:00 1 µg/m3 0.8 µg/m3 141.36 µg/m3 8.92 µg/m3 8.93 µg/m3 24.7 °C 67.79 % 3.3 m/s 162.67 Deg -0.71 µg/m3
2022-06-20 17:00 1.24 µg/m3 1.02 µg/m3 144.66 µg/m3 9.24 µg/m3 9.23 µg/m3 24.9 °C 69.53 % 3.58 m/s 147.37 Deg -0.67 µg/m3
2022-06-20 16:00 2.78 µg/m3 1.05 µg/m3 147.63 µg/m3 9.43 µg/m3 9.26 µg/m3 25.38 °C 64.02 % 3.4 m/s 210.62 Deg -0.52 µg/m3
2022-06-20 15:00 1.6 µg/m3 1.05 µg/m3 146.12 µg/m3 8.99 µg/m3 8.5 µg/m3 25.34 °C 67.83 % 3.73 m/s 164.01 Deg -0.65 µg/m3
2022-06-20 14:00 2.2 µg/m3 1.32 µg/m3 140.16 µg/m3 7.01 µg/m3 8.65 µg/m3 26 °C 62.03 % 2.54 m/s 194.84 Deg -0.57 µg/m3
2022-06-20 13:00 3.28 µg/m3 1.27 µg/m3 130.05 µg/m3 8.03 µg/m3 9.23 µg/m3 25.69 °C 58.66 % 2.77 m/s 116.65 Deg -0.39 µg/m3
2022-06-20 12:00 6.43 µg/m3 1.18 µg/m3 114.68 µg/m3 8.41 µg/m3 8.86 µg/m3 25.01 °C 66.84 % 3.82 m/s 152.27 Deg 0.3 µg/m3
2022-06-20 11:00 4.65 µg/m3 1.15 µg/m3 118.72 µg/m3 10.2 µg/m3 8.5 µg/m3 26.5 °C 52.16 % 2.82 m/s 275.84 Deg -0.08 µg/m3
2022-06-20 10:00 4.91 µg/m3 1.29 µg/m3 120.98 µg/m3 6.82 µg/m3 8.97 µg/m3 25.95 °C 51.61 % 3.21 m/s 289 Deg -0.13 µg/m3
2022-06-20 09:00 5.62 µg/m3 1.28 µg/m3 119.57 µg/m3 7.58 µg/m3 10.46 µg/m3 25.27 °C 50.02 % 2.74 m/s 224 Deg -0.04 µg/m3
2022-06-20 08:00 15.52 µg/m3 1.6 µg/m3 102.96 µg/m3 13.2 µg/m3 10.06 µg/m3 24.38 °C 57.22 % 2.76 m/s 280.08 Deg 1.31 µg/m3
2022-06-20 07:00 7.48 µg/m3 1.19 µg/m3 104.19 µg/m3 11.54 µg/m3 10.09 µg/m3 23.51 °C 64.12 % 1.96 m/s 150.21 Deg -0.14 µg/m3
2022-06-20 06:00 6.8 µg/m3 0.46 µg/m3 86.68 µg/m3 10.71 µg/m3 10.45 µg/m3 21.28 °C 92.34 % 1.96 m/s 131.27 Deg -0.47 µg/m3
2022-06-20 05:00 5.68 µg/m3 0.3 µg/m3 81.07 µg/m3 9.24 µg/m3 10.65 µg/m3 21.23 °C 97.1 % 2.69 m/s 57.62 Deg -0.7 µg/m3
2022-06-20 04:00 2.15 µg/m3 0.34 µg/m3 89.73 µg/m3 11.47 µg/m3 10.8 µg/m3 21.25 °C 97.1 % 2.83 m/s 44.83 Deg -0.71 µg/m3
2022-06-20 03:00 2.98 µg/m3 0.45 µg/m3 98.41 µg/m3 10.77 µg/m3 11.51 µg/m3 21.48 °C 95.08 % 2.69 m/s 53.38 Deg -0.71 µg/m3
2022-06-20 02:00 3.05 µg/m3 0.44 µg/m3 99.4 µg/m3 11.16 µg/m3 10.22 µg/m3 21.57 °C 91.94 % 2.07 m/s 146.24 Deg -0.7 µg/m3
2022-06-20 01:00 2.19 µg/m3 0.32 µg/m3 97.96 µg/m3 10.39 µg/m3 8.27 µg/m3 21.7 °C 91.68 % 2.49 m/s 60.08 Deg -0.7 µg/m3
2022-06-20 00:00 1.2 µg/m3 0.32 µg/m3 107.95 µg/m3 8.86 µg/m3 7.79 µg/m3 21.91 °C 88.78 % 1.32 m/s 48.51 Deg -0.71 µg/m3
2022-06-19 23:00 1.71 µg/m3 0.44 µg/m3 118.41 µg/m3 9.94 µg/m3 9.48 µg/m3 22.2 °C 87.77 % 1.08 m/s 171.53 Deg -0.72 µg/m3
2022-06-19 22:00 1.07 µg/m3 0.5 µg/m3 112.79 µg/m3 12.18 µg/m3 10.48 µg/m3 22.28 °C 83.54 % 0.34 m/s 44.16 Deg -0.71 µg/m3
2022-06-19 21:00 1.04 µg/m3 0.55 µg/m3 117.94 µg/m3 9.3 µg/m3 9.71 µg/m3 22.75 °C 81.74 % 0.77 m/s 291.88 Deg -0.73 µg/m3
2022-06-19 20:00 1.49 µg/m3 0.58 µg/m3 114.45 µg/m3 11.09 µg/m3 9.1 µg/m3 23.38 °C 75.66 % 1.54 m/s 143.2 Deg -0.71 µg/m3
2022-06-19 19:00 5.09 µg/m3 0.74 µg/m3 119.62 µg/m3 12.18 µg/m3 9.64 µg/m3 24.32 °C 73.38 % 2.89 m/s 80.77 Deg -0.56 µg/m3
2022-06-19 18:00 5.43 µg/m3 0.96 µg/m3 126.34 µg/m3 8.41 µg/m3 8.83 µg/m3 25.74 °C 64.36 % 2.43 m/s 156.54 Deg -0.41 µg/m3
2022-06-19 17:00 3 µg/m3 0.87 µg/m3 132.27 µg/m3 8.41 µg/m3 9.06 µg/m3 27.23 °C 46.18 % 3.67 m/s 17.91 Deg -0.59 µg/m3
2022-06-19 16:00 1.81 µg/m3 0.82 µg/m3 131.84 µg/m3 11.92 µg/m3 10.62 µg/m3 27.35 °C 47.09 % 3.91 m/s 63.71 Deg -0.64 µg/m3
2022-06-19 15:00 1.96 µg/m3 1.19 µg/m3 133.29 µg/m3 10.64 µg/m3 10.16 µg/m3 26.35 °C 64.12 % 5.54 m/s 233.29 Deg -0.61 µg/m3
2022-06-19 14:00 1.68 µg/m3 0.99 µg/m3 132.84 µg/m3 10.26 µg/m3 10.03 µg/m3 26.03 °C 67.22 % 5.86 m/s 143.66 Deg -0.63 µg/m3
2022-06-19 13:00 1.51 µg/m3 0.97 µg/m3 129.87 µg/m3 11.09 µg/m3 9.98 µg/m3 25.69 °C 68.67 % 6.09 m/s 198.27 Deg -0.61 µg/m3
2022-06-19 12:00 2.31 µg/m3 1.03 µg/m3 136.35 µg/m3 11.54 µg/m3 8.89 µg/m3 25.26 °C 69.21 % 5.94 m/s 250.39 Deg -0.54 µg/m3
2022-06-19 11:00 1.34 µg/m3 0.88 µg/m3 130.9 µg/m3 9.18 µg/m3 8.89 µg/m3 25.1 °C 70.36 % 6.15 m/s 229.91 Deg -0.63 µg/m3
2022-06-19 10:00 1.92 µg/m3 0.86 µg/m3 130.18 µg/m3 8.16 µg/m3 9.01 µg/m3 25.13 °C 70.74 % 6.26 m/s 139.62 Deg -0.57 µg/m3
2022-06-19 09:00 1.8 µg/m3 0.87 µg/m3 129.39 µg/m3 8.16 µg/m3 8.8 µg/m3 24.69 °C 71.14 % 5.52 m/s 26.59 Deg -0.58 µg/m3
2022-06-19 08:00 1.88 µg/m3 0.83 µg/m3 126.3 µg/m3 8.54 µg/m3 9.71 µg/m3 23.98 °C 73.04 % 5.59 m/s 171.43 Deg -0.58 µg/m3
2022-06-19 07:00 4.17 µg/m3 0.64 µg/m3 113.92 µg/m3 9.3 µg/m3 11.8 µg/m3 22.6 °C 85.19 % 4.91 m/s 70.27 Deg -0.42 µg/m3
2022-06-19 06:00 4.05 µg/m3 0.52 µg/m3 100.08 µg/m3 12.24 µg/m3 12.95 µg/m3 21.57 °C 94.73 % 3.42 m/s 67.69 Deg -0.61 µg/m3
2022-06-19 05:00 5.09 µg/m3 0.51 µg/m3 92.33 µg/m3 11.41 µg/m3 11.76 µg/m3 21.34 °C 96.26 % 2.77 m/s 71.86 Deg -0.7 µg/m3
2022-06-19 04:00 4.59 µg/m3 0.52 µg/m3 91.43 µg/m3 11.09 µg/m3 11.13 µg/m3 21.35 °C 92.68 % 3.41 m/s 188.32 Deg -0.7 µg/m3
2022-06-19 03:00 7.69 µg/m3 0.57 µg/m3 85.69 µg/m3 10.39 µg/m3 10.62 µg/m3 21.35 °C 94.31 % 3.83 m/s 101.95 Deg -0.69 µg/m3
2022-06-19 02:00 6.26 µg/m3 0.5 µg/m3 93.55 µg/m3 9.18 µg/m3 11.41 µg/m3 21.57 °C 94.87 % 3.95 m/s 143.8 Deg -0.7 µg/m3
2022-06-19 01:00 4.22 µg/m3 0.62 µg/m3 110.06 µg/m3 10.01 µg/m3 12.85 µg/m3 21.7 °C 94.05 % 3.89 m/s 257.85 Deg -0.7 µg/m3
2022-06-19 00:00 4.43 µg/m3 0.61 µg/m3 114.44 µg/m3 9.24 µg/m3 11.72 µg/m3 21.91 °C 90.66 % 3.51 m/s 147.93 Deg -0.71 µg/m3
2022-06-18 23:00 3.69 µg/m3 0.78 µg/m3 118.65 µg/m3 9.24 µg/m3 9.95 µg/m3 22.17 °C 83.94 % 3.14 m/s 153.85 Deg -0.7 µg/m3
2022-06-18 22:00 2.66 µg/m3 0.77 µg/m3 121.77 µg/m3 10.07 µg/m3 10.58 µg/m3 22.35 °C 84.05 % 3.8 m/s 108.53 Deg -0.71 µg/m3
2022-06-18 21:00 4.28 µg/m3 0.92 µg/m3 119.18 µg/m3 8.48 µg/m3 10.79 µg/m3 22.69 °C 83.58 % 4.59 m/s 99.03 Deg -0.71 µg/m3
2022-06-18 20:00 2.4 µg/m3 0.85 µg/m3 120.07 µg/m3 9.3 µg/m3 11.41 µg/m3 22.98 °C 81.44 % 5.08 m/s 120.82 Deg -0.71 µg/m3
2022-06-18 19:00 4.2 µg/m3 0.9 µg/m3 119.78 µg/m3 11.09 µg/m3 11.14 µg/m3 23.32 °C 83.94 % 8.1 m/s 192.59 Deg -0.62 µg/m3
2022-06-18 18:00 2.78 µg/m3 0.73 µg/m3 119.22 µg/m3 13.2 µg/m3 10.59 µg/m3 23.01 °C 90.25 % 7.22 m/s 71.79 Deg -0.6 µg/m3
2022-06-18 17:00 1.77 µg/m3 0.68 µg/m3 110.97 µg/m3 9.5 µg/m3 10.36 µg/m3 23.14 °C 91.36 % 7.04 m/s 71.08 Deg -0.67 µg/m3
2022-06-18 16:00 1.57 µg/m3 0.86 µg/m3 116.62 µg/m3 9.75 µg/m3 10.74 µg/m3 24.05 °C 85.84 % 4.84 m/s 32.01 Deg -0.64 µg/m3
2022-06-18 15:00 1.51 µg/m3 1.12 µg/m3 119.85 µg/m3 8.09 µg/m3 9.72 µg/m3 25.88 °C 73.8 % 5.9 m/s 190.81 Deg -0.63 µg/m3
2022-06-18 14:00 1.45 µg/m3 1.77 µg/m3 124.28 µg/m3 10.77 µg/m3 9.37 µg/m3 27.74 °C 51.98 % 5.45 m/s 263.51 Deg -0.64 µg/m3
2022-06-18 13:00 1.73 µg/m3 2.63 µg/m3 118.53 µg/m3 10.45 µg/m3 9.6 µg/m3 26.74 °C 61.2 % 6.15 m/s 98.58 Deg -0.59 µg/m3
2022-06-18 12:00 2.1 µg/m3 2.38 µg/m3 116.75 µg/m3 16.39 µg/m3 9.6 µg/m3 25.72 °C 69.58 % 6.86 m/s 240.16 Deg -0.53 µg/m3
2022-06-18 11:00 3.42 µg/m3 2.5 µg/m3 109.21 µg/m3 14.73 µg/m3 10.28 µg/m3 25.06 °C 76.61 % 7.39 m/s 217.56 Deg -0.33 µg/m3
2022-06-18 10:00 6.76 µg/m3 3.95 µg/m3 115.85 µg/m3 14.54 µg/m3 10.79 µg/m3 24.73 °C 73.58 % 7.47 m/s 249.34 Deg -0.03 µg/m3
2022-06-18 09:00 5.3 µg/m3 3.68 µg/m3 106.73 µg/m3 11.86 µg/m3 10.46 µg/m3 25.12 °C 67.24 % 7.49 m/s 216.64 Deg -0.15 µg/m3
2022-06-18 08:00 2.71 µg/m3 1.09 µg/m3 100.29 µg/m3 9.69 µg/m3 10.6 µg/m3 24.44 °C 76.52 % 5.14 m/s 217.98 Deg -0.45 µg/m3
2022-06-18 07:00 4.03 µg/m3 0.48 µg/m3 90.41 µg/m3 9.24 µg/m3 11.01 µg/m3 22.48 °C 94.86 % 2.26 m/s 104.69 Deg -0.49 µg/m3
2022-06-18 06:00 3.6 µg/m3 0.57 µg/m3 96.1 µg/m3 8.92 µg/m3 10.52 µg/m3 22.26 °C 95.62 % 3.3 m/s 272.23 Deg -0.64 µg/m3
2022-06-18 05:00 3.28 µg/m3 0.61 µg/m3 97.92 µg/m3 7.58 µg/m3 9.3 µg/m3 22.31 °C 94.51 % 4.19 m/s 260.58 Deg -0.7 µg/m3
2022-06-18 04:00 1.65 µg/m3 0.57 µg/m3 93.64 µg/m3 6.31 µg/m3 9 µg/m3 22.51 °C 94.67 % 5.07 m/s 245.93 Deg -0.71 µg/m3
2022-06-18 03:00 1.42 µg/m3 0.5 µg/m3 89.28 µg/m3 6.43 µg/m3 8.8 µg/m3 22.54 °C 94.08 % 3.81 m/s 249.06 Deg -0.72 µg/m3
2022-06-18 02:00 0.31 µg/m3 0.38 µg/m3 92.67 µg/m3 4.97 µg/m3 8.97 µg/m3 22.55 °C 94 % 4.52 m/s 246.33 Deg -0.72 µg/m3
2022-06-18 01:00 0.15 µg/m3 0.32 µg/m3 93.68 µg/m3 4.14 µg/m3 9.2 µg/m3 22.43 °C 96.06 % 4 m/s 237.26 Deg -0.73 µg/m3
2022-06-18 00:00 0.59 µg/m3 0.28 µg/m3 91.65 µg/m3 5.54 µg/m3 9.03 µg/m3 22.47 °C 97.88 % 3.77 m/s 225.8 Deg -0.71 µg/m3
2022-06-17 23:00 1.63 µg/m3 0.27 µg/m3 89.49 µg/m3 5.22 µg/m3 8.22 µg/m3 22.6 °C 98.51 % 2.62 m/s 228.08 Deg -0.72 µg/m3
2022-06-17 22:00 0.22 µg/m3 0.26 µg/m3 91.18 µg/m3 4.65 µg/m3 7.98 µg/m3 22.77 °C 98.2 % 2.73 m/s 244.03 Deg -0.72 µg/m3
2022-06-17 21:00 0.23 µg/m3 0.34 µg/m3 91.99 µg/m3 4.46 µg/m3 8.29 µg/m3 22.87 °C 96.84 % 2.87 m/s 246.23 Deg -0.72 µg/m3
2022-06-17 20:00 0.16 µg/m3 0.47 µg/m3 92.1 µg/m3 4.39 µg/m3 8.49 µg/m3 22.97 °C 95.3 % 2.38 m/s 230.68 Deg -0.72 µg/m3
2022-06-17 19:00 0.56 µg/m3 0.5 µg/m3 91.76 µg/m3 5.03 µg/m3 8.93 µg/m3 23.42 °C 92.64 % 4.19 m/s 200.89 Deg -0.72 µg/m3
2022-06-17 18:00 0.36 µg/m3 0.6 µg/m3 94.88 µg/m3 4.65 µg/m3 8.88 µg/m3 24 °C 88.52 % 4.12 m/s 173.93 Deg -0.69 µg/m3
2022-06-17 17:00 0.43 µg/m3 0.68 µg/m3 95.22 µg/m3 5.8 µg/m3 9.17 µg/m3 24.12 °C 87.36 % 4.79 m/s 107.96 Deg -0.7 µg/m3
2022-06-17 16:00 0.31 µg/m3 0.81 µg/m3 93.74 µg/m3 5.6 µg/m3 8.83 µg/m3 24.47 °C 82.17 % 5.44 m/s 172.58 Deg -0.7 µg/m3
2022-06-17 15:00 3.08 µg/m3 1.46 µg/m3 94.89 µg/m3 4.2 µg/m3 8.36 µg/m3 24.7 °C 79.22 % 5.28 m/s 199.02 Deg -0.12 µg/m3
2022-06-17 14:00 0.52 µg/m3 1.22 µg/m3 96.88 µg/m3 4.33 µg/m3 8.5 µg/m3 24.13 °C 81.02 % 4.8 m/s 178.44 Deg -0.68 µg/m3
2022-06-17 13:00 1.52 µg/m3 1.52 µg/m3 108.76 µg/m3 5.03 µg/m3 8.06 µg/m3 24.39 °C 77.22 % 3.96 m/s 129.57 Deg -0.57 µg/m3
2022-06-17 12:00 2.71 µg/m3 1.96 µg/m3 115.98 µg/m3 3.95 µg/m3 8.02 µg/m3 24.74 °C 65 % 3.57 m/s 167.05 Deg -0.38 µg/m3
2022-06-17 11:00 2.54 µg/m3 1.51 µg/m3 108.42 µg/m3 5.16 µg/m3 9.18 µg/m3 24.16 °C 79.17 % 3.46 m/s 178.17 Deg -0.4 µg/m3
2022-06-17 10:00 2.75 µg/m3 2.74 µg/m3 115.56 µg/m3 4.58 µg/m3 8.83 µg/m3 24.89 °C 65.87 % 3.19 m/s 138.44 Deg -0.43 µg/m3
2022-06-17 09:00 4.28 µg/m3 2.46 µg/m3 109.65 µg/m3 4.26 µg/m3 9.96 µg/m3 24.4 °C 64.32 % 2.58 m/s 232.03 Deg -0.12 µg/m3
2022-06-17 08:00 6.33 µg/m3 0.81 µg/m3 95.28 µg/m3 5.29 µg/m3 9.11 µg/m3 22.63 °C 86.63 % 2.25 m/s 227.96 Deg 0.27 µg/m3
2022-06-17 07:00 2.8 µg/m3 0.21 µg/m3 91.08 µg/m3 6.11 µg/m3 8.47 µg/m3 22 °C 98.48 % 2.37 m/s 323.72 Deg -0.37 µg/m3
2022-06-17 06:00 3.28 µg/m3 0.26 µg/m3 88.35 µg/m3 3.5 µg/m3 7.77 µg/m3 21.71 °C 98.7 % 2.13 m/s 313.94 Deg -0.64 µg/m3
2022-06-17 05:00 0.2 µg/m3 0.26 µg/m3 94 µg/m3 3.37 µg/m3 9.15 µg/m3 21.64 °C 98.3 % 1.84 m/s 262.01 Deg -0.72 µg/m3
2022-06-17 04:00 0.14 µg/m3 0.27 µg/m3 90.76 µg/m3 3.82 µg/m3 9.29 µg/m3 21.69 °C 97.39 % 2.08 m/s 260.91 Deg -0.72 µg/m3
2022-06-17 03:00 0.32 µg/m3 0.2 µg/m3 89.5 µg/m3 1.97 µg/m3 7.18 µg/m3 21.57 °C 96.66 % 1.81 m/s 318.94 Deg -0.71 µg/m3
2022-06-17 02:00 0.28 µg/m3 0.26 µg/m3 90.85 µg/m3 2.03 µg/m3 7.47 µg/m3 21.5 °C 95.45 % 1.96 m/s 275.98 Deg -0.72 µg/m3
2022-06-17 01:00 0.26 µg/m3 0.23 µg/m3 92.34 µg/m3 4.46 µg/m3 8.95 µg/m3 21.54 °C 95.14 % 1.99 m/s 245.67 Deg -0.71 µg/m3
2022-06-17 00:00 0.32 µg/m3 0.26 µg/m3 92.46 µg/m3 2.8 µg/m3 7.09 µg/m3 21.68 °C 92.91 % 2.11 m/s 237.13 Deg -0.72 µg/m3
2022-06-16 23:00 0.08 µg/m3 0.26 µg/m3 102.22 µg/m3 4.07 µg/m3 6.86 µg/m3 22.03 °C 88.32 % 1.25 m/s 238.63 Deg -0.73 µg/m3
2022-06-16 22:00 0.02 µg/m3 0.23 µg/m3 104.13 µg/m3 5.73 µg/m3 7.5 µg/m3 21.96 °C 89.82 % 0.26 m/s 188.63 Deg -0.72 µg/m3
2022-06-16 21:00 0.31 µg/m3 0.27 µg/m3 95.42 µg/m3 3.56 µg/m3 8.04 µg/m3 22.12 °C 90.57 % 0.81 m/s 168.33 Deg -0.71 µg/m3
2022-06-16 20:00 0.32 µg/m3 0.34 µg/m3 97.83 µg/m3 3.05 µg/m3 7.57 µg/m3 22.65 °C 86.02 % 1.33 m/s 313.9 Deg -0.72 µg/m3
2022-06-16 19:00 0.24 µg/m3 0.4 µg/m3 105.13 µg/m3 4.26 µg/m3 8.34 µg/m3 23.52 °C 80.06 % 3.29 m/s 259.36 Deg -0.73 µg/m3
2022-06-16 18:00 0.29 µg/m3 0.43 µg/m3 104.54 µg/m3 2.73 µg/m3 8.47 µg/m3 23.94 °C 75.18 % 3.77 m/s 209.81 Deg -0.71 µg/m3
2022-06-16 17:00 0.29 µg/m3 0.41 µg/m3 104.94 µg/m3 2.73 µg/m3 7.95 µg/m3 23.88 °C 79.8 % 5.01 m/s 158.68 Deg -0.71 µg/m3
2022-06-16 16:00 0.34 µg/m3 0.45 µg/m3 100.42 µg/m3 2.41 µg/m3 8.06 µg/m3 24.14 °C 79.14 % 4.76 m/s 179.94 Deg -0.71 µg/m3
2022-06-16 15:00 0.42 µg/m3 0.52 µg/m3 101.47 µg/m3 0.12 µg/m3 8.97 µg/m3 24.46 °C 74.78 % 4.5 m/s 127.13 Deg -0.7 µg/m3
2022-06-16 14:00 0.39 µg/m3 0.53 µg/m3 101.46 µg/m3 1.9 µg/m3 8.33 µg/m3 24.32 °C 76.94 % 5.01 m/s 133.96 Deg -0.7 µg/m3
2022-06-16 13:00 0.46 µg/m3 0.65 µg/m3 106.08 µg/m3 4.33 µg/m3 7.81 µg/m3 24.06 °C 75.73 % 4.26 m/s 149.28 Deg -0.69 µg/m3
2022-06-16 12:00 0.37 µg/m3 0.6 µg/m3 99.71 µg/m3 3.31 µg/m3 7.78 µg/m3 23.73 °C 80.1 % 3.73 m/s 89.13 Deg -0.7 µg/m3
2022-06-16 11:00 0.44 µg/m3 0.65 µg/m3 102.39 µg/m3 3.18 µg/m3 8.28 µg/m3 23.83 °C 76.05 % 3.02 m/s 201.55 Deg -0.69 µg/m3
2022-06-16 10:00 0.79 µg/m3 0.61 µg/m3 102.03 µg/m3 4.52 µg/m3 7.74 µg/m3 23.74 °C 79.67 % 2.98 m/s 216.04 Deg -0.64 µg/m3
2022-06-16 09:00 1.65 µg/m3 0.56 µg/m3 104.23 µg/m3 2.92 µg/m3 8.49 µg/m3 22.84 °C 86.31 % 3.26 m/s 232.72 Deg -0.53 µg/m3
2022-06-16 08:00 2.41 µg/m3 0.34 µg/m3 100.78 µg/m3 5.09 µg/m3 8.5 µg/m3 22.3 °C 91.87 % 3.35 m/s 278.93 Deg -0.41 µg/m3
2022-06-16 07:00 0.53 µg/m3 0.28 µg/m3 98.01 µg/m3 4.46 µg/m3 8.68 µg/m3 21.78 °C 94.94 % 2.94 m/s 286.7 Deg -0.69 µg/m3
2022-06-16 06:00 1.31 µg/m3 0.31 µg/m3 91.61 µg/m3 7.45 µg/m3 8.56 µg/m3 21.34 °C 96.34 % 2.62 m/s 285.63 Deg -0.68 µg/m3
2022-06-16 05:00 2.01 µg/m3 0.35 µg/m3 90.82 µg/m3 5.67 µg/m3 9.9 µg/m3 21.23 °C 96.17 % 2 m/s 270.69 Deg -0.72 µg/m3
2022-06-16 04:00 3.95 µg/m3 0.32 µg/m3 93.15 µg/m3 3.88 µg/m3 8.5 µg/m3 21.36 °C 94.95 % 1.72 m/s 319.61 Deg -0.71 µg/m3
2022-06-16 03:00 1.76 µg/m3 0.31 µg/m3 101.62 µg/m3 3.18 µg/m3 8.13 µg/m3 21.71 °C 90.62 % 2 m/s 334.17 Deg -0.71 µg/m3
2022-06-16 02:00 0.79 µg/m3 0.48 µg/m3 115.46 µg/m3 2.41 µg/m3 7.51 µg/m3 22.36 °C 75.58 % 1.16 m/s 317.29 Deg -0.71 µg/m3
2022-06-16 01:00 0.7 µg/m3 0.32 µg/m3 117.94 µg/m3 3.18 µg/m3 6.82 µg/m3 22.5 °C 72.8 % 0.58 m/s 184.1 Deg -0.71 µg/m3
2022-06-16 00:00 0.63 µg/m3 0.48 µg/m3 116.53 µg/m3 4.07 µg/m3 6.38 µg/m3 22.83 °C 72.32 % 1 m/s 238.08 Deg -0.71 µg/m3
2022-06-15 23:00 1.23 µg/m3 0.53 µg/m3 116.51 µg/m3 4.01 µg/m3 7.34 µg/m3 22.83 °C 72.42 % 1.06 m/s 259.43 Deg -0.71 µg/m3
2022-06-15 22:00 1.09 µg/m3 0.46 µg/m3 119.74 µg/m3 3.88 µg/m3 8.15 µg/m3 22.79 °C 78.65 % 0.94 m/s 219.26 Deg -0.71 µg/m3
2022-06-15 21:00 1.44 µg/m3 0.51 µg/m3 119.21 µg/m3 4.9 µg/m3 7.57 µg/m3 23.02 °C 73.82 % 1.09 m/s 268.52 Deg -0.72 µg/m3
2022-06-15 20:00 1.13 µg/m3 0.46 µg/m3 112.28 µg/m3 1.52 µg/m3 7.71 µg/m3 23.33 °C 75.13 % 1.34 m/s 315.36 Deg -0.51 µg/m3
2022-06-15 19:00 1.21 µg/m3 0.55 µg/m3 121.2 µg/m3 3.63 µg/m3 7.41 µg/m3 24.27 °C 68.36 % 2.27 m/s 206.53 Deg -0.64 µg/m3
2022-06-15 18:00 0.82 µg/m3 0.65 µg/m3 130.09 µg/m3 3.63 µg/m3 8.15 µg/m3 25.15 °C 58 % 2.53 m/s 229.99 Deg -0.7 µg/m3
2022-06-15 17:00 1.49 µg/m3 0.8 µg/m3 133.72 µg/m3 2.61 µg/m3 8.24 µg/m3 25.63 °C 52.88 % 3.23 m/s 162.42 Deg -0.64 µg/m3
2022-06-15 16:00 1.74 µg/m3 0.88 µg/m3 131.03 µg/m3 2.41 µg/m3 7.81 µg/m3 26.33 °C 48.7 % 3.17 m/s 214.36 Deg -0.62 µg/m3
2022-06-15 15:00 1.58 µg/m3 0.8 µg/m3 132.73 µg/m3 2.67 µg/m3 7.13 µg/m3 27.03 °C 41.24 % 2.53 m/s 217.23 Deg -0.63 µg/m3
2022-06-15 14:00 4.99 µg/m3 1.39 µg/m3 122.62 µg/m3 2.92 µg/m3 7.66 µg/m3 25.9 °C 53.99 % 2.45 m/s 186.7 Deg 0.02 µg/m3
2022-06-15 13:00 6.65 µg/m3 1.71 µg/m3 116.5 µg/m3 3.56 µg/m3 7.68 µg/m3 25.7 °C 53.48 % 2.76 m/s 271.61 Deg 0.47 µg/m3
2022-06-15 12:00 0 µg/m3 0 µg/m3 110.22 µg/m3 1.27 µg/m3 8.26 µg/m3 25.19 °C 54.92 % 2.88 m/s 276.72 Deg 0 µg/m3
2022-06-15 11:00 0 µg/m3 2.15 µg/m3 111.31 µg/m3 1.14 µg/m3 8.84 µg/m3 25.04 °C 51.42 % 2.62 m/s 211.8 Deg 0 µg/m3
2022-06-15 10:00 0 µg/m3 2.14 µg/m3 101.3 µg/m3 5.22 µg/m3 9.38 µg/m3 24.67 °C 58.31 % 2.22 m/s 258.53 Deg 0 µg/m3
2022-06-15 09:00 0 µg/m3 2.21 µg/m3 96.03 µg/m3 4.9 µg/m3 8.68 µg/m3 23.84 °C 69.88 % 2.53 m/s 249.68 Deg 0 µg/m3
2022-06-15 08:00 0 µg/m3 2 µg/m3 101.43 µg/m3 8.6 µg/m3 9.91 µg/m3 22.99 °C 71.33 % 2.23 m/s 259.04 Deg 0 µg/m3
2022-06-15 07:00 9.95 µg/m3 0.64 µg/m3 89.79 µg/m3 10.52 µg/m3 8.34 µg/m3 22.12 °C 87.51 % 2.51 m/s 263.84 Deg 0.99 µg/m3
2022-06-15 06:00 3.02 µg/m3 0.3 µg/m3 89.49 µg/m3 5.41 µg/m3 8.04 µg/m3 21.44 °C 96.12 % 2.26 m/s 345.09 Deg 0.13 µg/m3
2022-06-15 05:00 1.21 µg/m3 0.37 µg/m3 111.26 µg/m3 4.97 µg/m3 8.92 µg/m3 21.71 °C 92.74 % 1.68 m/s 231.36 Deg 0.02 µg/m3
2022-06-15 04:00 2.03 µg/m3 0.4 µg/m3 114.37 µg/m3 4.46 µg/m3 8.73 µg/m3 22.03 °C 84.83 % 1.42 m/s 312.43 Deg 0.01 µg/m3
2022-06-15 03:00 2.65 µg/m3 0.43 µg/m3 116.78 µg/m3 6.05 µg/m3 9.45 µg/m3 21.83 °C 79.92 % 1.24 m/s 303.25 Deg 0.02 µg/m3
2022-06-15 02:00 1.98 µg/m3 0.46 µg/m3 123.13 µg/m3 7.14 µg/m3 9.3 µg/m3 22.03 °C 84.89 % 1.49 m/s 279.09 Deg 0.01 µg/m3
2022-06-15 01:00 1.61 µg/m3 0.64 µg/m3 129.45 µg/m3 6.94 µg/m3 10.49 µg/m3 22.79 °C 69.89 % 1.29 m/s 267.18 Deg 0.01 µg/m3
2022-06-15 00:00 1.88 µg/m3 0.56 µg/m3 127.79 µg/m3 7.01 µg/m3 9.24 µg/m3 22.84 °C 67.75 % 0.89 m/s 202.23 Deg 0.01 µg/m3
2022-06-14 23:00 1.48 µg/m3 0.42 µg/m3 133.47 µg/m3 7.71 µg/m3 9.91 µg/m3 22.65 °C 76.37 % 1.33 m/s 155.76 Deg 0.01 µg/m3
2022-06-14 22:00 1.68 µg/m3 0.36 µg/m3 130.99 µg/m3 7.9 µg/m3 9.72 µg/m3 22.69 °C 77.64 % 1.49 m/s 113.53 Deg 0.01 µg/m3
2022-06-14 21:00 0.58 µg/m3 0.54 µg/m3 131.73 µg/m3 6.63 µg/m3 8.79 µg/m3 22.94 °C 73.13 % 0.91 m/s 116.63 Deg 0 µg/m3
2022-06-14 20:00 0.77 µg/m3 0.74 µg/m3 131.71 µg/m3 6.11 µg/m3 8.65 µg/m3 23.07 °C 72.33 % 1.16 m/s 40.83 Deg 0.02 µg/m3
2022-06-14 19:00 0.53 µg/m3 1.14 µg/m3 137.29 µg/m3 8.73 µg/m3 8.54 µg/m3 24.34 °C 55.58 % 1.56 m/s 222.18 Deg 0.01 µg/m3
2022-06-14 18:00 1 µg/m3 1.23 µg/m3 139.56 µg/m3 7.45 µg/m3 9.06 µg/m3 25.5 °C 54.48 % 1.71 m/s 165.73 Deg 0.06 µg/m3
2022-06-14 17:00 0.63 µg/m3 1.15 µg/m3 140.28 µg/m3 7.97 µg/m3 9.21 µg/m3 24.72 °C 65.99 % 2.12 m/s 173 Deg 0.06 µg/m3
2022-06-14 16:00 1.26 µg/m3 1.11 µg/m3 140.82 µg/m3 9.05 µg/m3 9.69 µg/m3 23.9 °C 79.97 % 2.77 m/s 277.59 Deg 0.11 µg/m3
2022-06-14 15:00 7.99 µg/m3 1.45 µg/m3 124.48 µg/m3 8.73 µg/m3 9.96 µg/m3 24.22 °C 77.35 % 2.94 m/s 263.96 Deg 1.43 µg/m3
2022-06-14 14:00 4.05 µg/m3 1.63 µg/m3 136.57 µg/m3 7.14 µg/m3 8.66 µg/m3 24.15 °C 74.15 % 3.37 m/s 289.5 Deg 0.58 µg/m3
2022-06-14 13:00 1.51 µg/m3 1.56 µg/m3 128.56 µg/m3 8.79 µg/m3 9.06 µg/m3 24.64 °C 65.02 % 3.46 m/s 238.02 Deg 0.18 µg/m3
2022-06-14 12:00 5.41 µg/m3 1.53 µg/m3 117.16 µg/m3 10.13 µg/m3 9.06 µg/m3 23.79 °C 74.4 % 3.45 m/s 261.76 Deg 0.94 µg/m3
2022-06-14 11:00 5 µg/m3 1.04 µg/m3 112.95 µg/m3 11.98 µg/m3 9 µg/m3 23.45 °C 82.11 % 4.01 m/s 147.13 Deg 0.88 µg/m3
2022-06-14 10:00 9.62 µg/m3 0.81 µg/m3 99.82 µg/m3 12.24 µg/m3 9.15 µg/m3 23.27 °C 83.4 % 3.53 m/s 295.68 Deg 1.99 µg/m3
2022-06-14 09:00 5.5 µg/m3 0.38 µg/m3 105.39 µg/m3 10.84 µg/m3 8.82 µg/m3 22.26 °C 89.82 % 3.27 m/s 129.97 Deg 0.99 µg/m3
2022-06-14 08:00 3.2 µg/m3 0.27 µg/m3 106.95 µg/m3 9.88 µg/m3 8.54 µg/m3 21.24 °C 95.36 % 3.82 m/s 27.56 Deg 0.3 µg/m3
2022-06-14 07:00 6.04 µg/m3 0.24 µg/m3 95.43 µg/m3 6.69 µg/m3 8.38 µg/m3 21.01 °C 97.56 % 4.35 m/s 14.8 Deg 0.32 µg/m3
2022-06-14 06:00 2.4 µg/m3 0.29 µg/m3 100.36 µg/m3 11.03 µg/m3 8.53 µg/m3 20.9 °C 95.89 % 2.67 m/s 179.1 Deg 0.06 µg/m3
2022-06-14 05:00 2.63 µg/m3 0.28 µg/m3 89.33 µg/m3 11.35 µg/m3 8.55 µg/m3 20.71 °C 90.97 % 2.83 m/s 82.28 Deg 0.04 µg/m3
2022-06-14 04:00 3.29 µg/m3 0.33 µg/m3 93.99 µg/m3 13.9 µg/m3 9.21 µg/m3 20.71 °C 90.03 % 3.65 m/s 109.39 Deg 0.03 µg/m3
2022-06-14 03:00 3.53 µg/m3 0.36 µg/m3 94.82 µg/m3 14.47 µg/m3 10.13 µg/m3 20.98 °C 86.24 % 2.98 m/s 132.73 Deg 0.03 µg/m3
2022-06-14 02:00 9.09 µg/m3 0.38 µg/m3 88.91 µg/m3 15.37 µg/m3 8.93 µg/m3 20.7 °C 87.1 % 2.77 m/s 189.34 Deg 0.03 µg/m3
2022-06-14 01:00 2.69 µg/m3 0.35 µg/m3 102.11 µg/m3 16.13 µg/m3 8.73 µg/m3 20.19 °C 92.84 % 3.28 m/s 40.33 Deg 0.03 µg/m3
2022-06-14 00:00 19.23 µg/m3 0.49 µg/m3 90.07 µg/m3 11.98 µg/m3 7.52 µg/m3 20.93 °C 88.79 % 2.64 m/s 284.33 Deg 0.03 µg/m3
2022-06-13 23:00 1.73 µg/m3 0.43 µg/m3 115.23 µg/m3 7.45 µg/m3 8.28 µg/m3 21.6 °C 86.13 % 3.45 m/s 224.97 Deg 0.01 µg/m3
2022-06-13 22:00 0.84 µg/m3 0.4 µg/m3 122.5 µg/m3 8.6 µg/m3 8.12 µg/m3 21.81 °C 80.71 % 4.97 m/s 208.53 Deg 0.01 µg/m3
2022-06-13 21:00 1.08 µg/m3 0.51 µg/m3 124.73 µg/m3 10.71 µg/m3 8.28 µg/m3 21.99 °C 76.86 % 4.22 m/s 198.78 Deg 0 µg/m3
2022-06-13 20:00 2.15 µg/m3 0.66 µg/m3 124.02 µg/m3 9.88 µg/m3 6.99 µg/m3 22.26 °C 75.23 % 2.9 m/s 186.46 Deg 0.02 µg/m3
2022-06-13 19:00 3.21 µg/m3 0.6 µg/m3 127.08 µg/m3 7.9 µg/m3 7.23 µg/m3 22.73 °C 74.26 % 3.69 m/s 192.41 Deg 0.14 µg/m3
2022-06-13 18:00 3.13 µg/m3 0.63 µg/m3 133.87 µg/m3 9.88 µg/m3 7.95 µg/m3 23.21 °C 74.74 % 3.82 m/s 229.07 Deg 0.2 µg/m3
2022-06-13 17:00 1.19 µg/m3 0.63 µg/m3 140.47 µg/m3 9.3 µg/m3 8.08 µg/m3 23.33 °C 76.29 % 3.83 m/s 232.85 Deg 0.12 µg/m3
2022-06-13 16:00 0.8 µg/m3 0.66 µg/m3 138.43 µg/m3 7.01 µg/m3 7.68 µg/m3 23.18 °C 77.21 % 4.6 m/s 197.48 Deg 0.08 µg/m3
2022-06-13 15:00 2.18 µg/m3 0.79 µg/m3 133.09 µg/m3 5.09 µg/m3 7.45 µg/m3 23.97 °C 66.58 % 4.56 m/s 174.15 Deg 0.23 µg/m3
2022-06-13 14:00 3.6 µg/m3 1.01 µg/m3 125.08 µg/m3 6.31 µg/m3 7.52 µg/m3 24.73 °C 57.2 % 4.22 m/s 222.58 Deg 0.5 µg/m3
2022-06-13 13:00 2.69 µg/m3 0.92 µg/m3 129.35 µg/m3 -0.78 µg/m3 3.86 µg/m3 23.87 °C 63.64 % 4.14 m/s 137.28 Deg 0.31 µg/m3
2022-06-13 12:00 3.89 µg/m3 0.98 µg/m3 125.05 µg/m3 -0.78 µg/m3 2.63 µg/m3 23.11 °C 69.62 % 3.81 m/s 225.6 Deg 0.59 µg/m3
2022-06-13 11:00 9.36 µg/m3 1.39 µg/m3 122.49 µg/m3 2.86 µg/m3 7.59 µg/m3 22.98 °C 68.75 % 4.02 m/s 229.46 Deg 1.8 µg/m3
2022-06-13 10:00 6.72 µg/m3 1.38 µg/m3 0 µg/m3 -0.78 µg/m3 4.28 µg/m3 23.13 °C 64.55 % 3.51 m/s 231.91 Deg 1.24 µg/m3
2022-06-13 09:00 5.28 µg/m3 1.61 µg/m3 0 µg/m3 -0.78 µg/m3 2.63 µg/m3 22.7 °C 70.83 % 3.05 m/s 259.58 Deg 0.79 µg/m3
2022-06-13 08:00 9.12 µg/m3 1 µg/m3 94.92 µg/m3 -0.78 µg/m3 2.63 µg/m3 21.79 °C 82.56 % 3.24 m/s 271.91 Deg 1.22 µg/m3
2022-06-13 07:00 13.33 µg/m3 0.82 µg/m3 87.63 µg/m3 7.55 µg/m3 7.04 µg/m3 21.51 °C 86.25 % 3.08 m/s 165.08 Deg 1.36 µg/m3
2022-06-13 06:00 13.24 µg/m3 0.56 µg/m3 79.78 µg/m3 11.47 µg/m3 10.96 µg/m3 20.83 °C 86.6 % 2.52 m/s 98.99 Deg 0.46 µg/m3
2022-06-13 05:00 6.96 µg/m3 0.77 µg/m3 84.24 µg/m3 7.45 µg/m3 11.28 µg/m3 20.67 °C 83.91 % 2.08 m/s 45.91 Deg 0.03 µg/m3
2022-06-13 04:00 3.57 µg/m3 0.81 µg/m3 101.84 µg/m3 10.45 µg/m3 9.97 µg/m3 21.22 °C 73.9 % 3.43 m/s 70.98 Deg 0.02 µg/m3
2022-06-13 03:00 9.05 µg/m3 0.5 µg/m3 89.48 µg/m3 14.15 µg/m3 10.67 µg/m3 20.89 °C 78.94 % 3.17 m/s 108.84 Deg 0.03 µg/m3
2022-06-13 02:00 5.93 µg/m3 0.34 µg/m3 89.46 µg/m3 12.3 µg/m3 8.86 µg/m3 20.07 °C 91.01 % 3.23 m/s 58.97 Deg 0.02 µg/m3
2022-06-13 01:00 2.79 µg/m3 0.28 µg/m3 100.12 µg/m3 11.03 µg/m3 10.16 µg/m3 20.31 °C 95.13 % 2.71 m/s 106.55 Deg 0.01 µg/m3
2022-06-13 00:00 0.55 µg/m3 0.34 µg/m3 113.8 µg/m3 11.35 µg/m3 9.15 µg/m3 20.68 °C 95.03 % 4.13 m/s 336.44 Deg 0.01 µg/m3
2022-06-12 23:00 2.58 µg/m3 0.38 µg/m3 112.73 µg/m3 10.39 µg/m3 9.71 µg/m3 20.92 °C 88.64 % 3.93 m/s 331.79 Deg 0.02 µg/m3
2022-06-12 22:00 3.85 µg/m3 0.41 µg/m3 110.4 µg/m3 11.16 µg/m3 9.7 µg/m3 21.23 °C 84.24 % 6.67 m/s 314.25 Deg 0.01 µg/m3
2022-06-12 21:00 3.76 µg/m3 0.44 µg/m3 110.38 µg/m3 15.05 µg/m3 10.2 µg/m3 21.86 °C 79.24 % 4.28 m/s 186.53 Deg 0.02 µg/m3
2022-06-12 20:00 3.54 µg/m3 0.53 µg/m3 117.9 µg/m3 11.03 µg/m3 10.66 µg/m3 22.09 °C 77.92 % 3.36 m/s 265.41 Deg 0.03 µg/m3
2022-06-12 19:00 3.96 µg/m3 0.54 µg/m3 120.87 µg/m3 10.07 µg/m3 10.67 µg/m3 22.67 °C 76.07 % 4.33 m/s 207.76 Deg 0.1 µg/m3
2022-06-12 18:00 1.3 µg/m3 0.55 µg/m3 126.69 µg/m3 8.09 µg/m3 8.89 µg/m3 22.87 °C 76.51 % 4.21 m/s 152.69 Deg 0.09 µg/m3
2022-06-12 17:00 0.42 µg/m3 0.47 µg/m3 120.92 µg/m3 8.92 µg/m3 8.76 µg/m3 23.25 °C 72.88 % 4.4 m/s 212.79 Deg 0.05 µg/m3
2022-06-12 16:00 0.71 µg/m3 0.56 µg/m3 123.69 µg/m3 9.62 µg/m3 8.67 µg/m3 22.87 °C 77.12 % 4.31 m/s 151.57 Deg 0.1 µg/m3
2022-06-12 15:00 2.52 µg/m3 0.57 µg/m3 124.22 µg/m3 9.5 µg/m3 8.45 µg/m3 22.45 °C 83.48 % 4.04 m/s 182.24 Deg 0.36 µg/m3
2022-06-12 14:00 0.5 µg/m3 0.53 µg/m3 118.38 µg/m3 8.03 µg/m3 8.86 µg/m3 22.26 °C 86.34 % 4.37 m/s 246.06 Deg 0.06 µg/m3
2022-06-12 13:00 0.85 µg/m3 0.68 µg/m3 117.65 µg/m3 7.97 µg/m3 8.97 µg/m3 22.19 °C 84.9 % 4.78 m/s 239.38 Deg 0.09 µg/m3
2022-06-12 12:00 1.31 µg/m3 0.69 µg/m3 116.48 µg/m3 6.43 µg/m3 8.47 µg/m3 22.61 °C 78.95 % 4.14 m/s 171.03 Deg 0.13 µg/m3
2022-06-12 11:00 2.05 µg/m3 0.7 µg/m3 118.6 µg/m3 5.03 µg/m3 8.55 µg/m3 22.58 °C 77.43 % 4 m/s 159.58 Deg 0.23 µg/m3
2022-06-12 10:00 3.87 µg/m3 0.76 µg/m3 111.97 µg/m3 N/A N/A 22.29 °C 76.77 % 4.01 m/s 311.61 Deg 0.59 µg/m3
2022-06-12 09:00 9.02 µg/m3 0.65 µg/m3 97.06 µg/m3 N/A N/A 21.81 °C 81.68 % 3.95 m/s 259.13 Deg 1.77 µg/m3
2022-06-12 08:00 7.3 µg/m3 0.69 µg/m3 96.25 µg/m3 N/A N/A 21.84 °C 77.58 % 3.85 m/s 266.72 Deg 1.17 µg/m3
2022-06-12 07:00 6.37 µg/m3 0.71 µg/m3 92.22 µg/m3 N/A N/A 21.86 °C 75.63 % 2.45 m/s 234.56 Deg 0.64 µg/m3
2022-06-12 06:00 10.56 µg/m3 0.48 µg/m3 80.2 µg/m3 N/A N/A 20.65 °C 89.65 % 1.73 m/s 316.65 Deg 0.5 µg/m3
2022-06-12 05:00 7.12 µg/m3 0.42 µg/m3 90.33 µg/m3 N/A N/A 20.18 °C 92.74 % 1.55 m/s 342.61 Deg 0.04 µg/m3
2022-06-12 04:00 12.07 µg/m3 0.36 µg/m3 75.04 µg/m3 N/A N/A 20.15 °C 94.45 % 1.83 m/s 4.95 Deg 0.05 µg/m3
2022-06-12 03:00 5.73 µg/m3 0.35 µg/m3 82.51 µg/m3 N/A N/A 20.25 °C 93.12 % 2.88 m/s 20.75 Deg 0.03 µg/m3
2022-06-12 02:00 7.1 µg/m3 0.44 µg/m3 83.78 µg/m3 N/A N/A 20.35 °C 91.13 % 3.05 m/s 33.39 Deg 0.03 µg/m3
2022-06-12 01:00 7.06 µg/m3 0.43 µg/m3 90.57 µg/m3 N/A N/A 20.55 °C 87.29 % 3.58 m/s 67.43 Deg 0.02 µg/m3
2022-06-12 00:00 3.29 µg/m3 0.45 µg/m3 99.74 µg/m3 N/A N/A 21.1 °C 85.95 % 4.71 m/s 19.72 Deg 0.03 µg/m3
2022-06-11 23:00 6.44 µg/m3 0.45 µg/m3 99.11 µg/m3 N/A N/A 20.98 °C 88.82 % 4.05 m/s 253.41 Deg 0.02 µg/m3
2022-06-11 22:00 3.77 µg/m3 0.39 µg/m3 102.55 µg/m3 N/A N/A 20.99 °C 90.33 % 2.82 m/s 321.63 Deg 0.02 µg/m3
2022-06-11 21:00 0.98 µg/m3 0.33 µg/m3 108.13 µg/m3 N/A N/A 21.04 °C 90.45 % 3.45 m/s 305.2 Deg 0.01 µg/m3
2022-06-11 20:00 3.73 µg/m3 0.37 µg/m3 108.98 µg/m3 N/A N/A 21.04 °C 89.48 % 4.76 m/s 264.34 Deg 0.03 µg/m3
2022-06-11 19:00 3.13 µg/m3 0.39 µg/m3 112.43 µg/m3 N/A N/A 21.46 °C 87.33 % 5.17 m/s 240.44 Deg 0.09 µg/m3
2022-06-11 18:00 0.99 µg/m3 0.41 µg/m3 116.75 µg/m3 N/A N/A 21.95 °C 85.34 % 5.47 m/s 253.7 Deg 0.08 µg/m3
2022-06-11 17:00 0.58 µg/m3 0.46 µg/m3 116.85 µg/m3 N/A N/A 22.34 °C 83.62 % 5.68 m/s 242.5 Deg 0.07 µg/m3
2022-06-11 16:00 0.55 µg/m3 0.45 µg/m3 115.18 µg/m3 N/A N/A 22.65 °C 82.48 % 5.82 m/s 246.44 Deg 0.08 µg/m3
2022-06-11 15:00 1.52 µg/m3 0.53 µg/m3 109.76 µg/m3 N/A N/A 22.61 °C 84.4 % 5.41 m/s 273.71 Deg 0.25 µg/m3
2022-06-11 14:00 0.65 µg/m3 0.54 µg/m3 110.62 µg/m3 N/A N/A 22.46 °C 86.41 % 5.68 m/s 256.94 Deg 0.09 µg/m3
2022-06-11 13:00 0.64 µg/m3 0.51 µg/m3 111.08 µg/m3 N/A N/A 22.42 °C 86.81 % 5.63 m/s 276.41 Deg 0.09 µg/m3
2022-06-11 12:00 0.82 µg/m3 0.55 µg/m3 113.14 µg/m3 N/A N/A 22.18 °C 87.03 % 5.88 m/s 291.81 Deg 0.11 µg/m3
2022-06-11 11:00 1.53 µg/m3 0.49 µg/m3 113 µg/m3 N/A N/A 21.87 °C 87.3 % 6.36 m/s 318.19 Deg 0.22 µg/m3
2022-06-11 10:00 0.62 µg/m3 0.44 µg/m3 106.24 µg/m3 N/A N/A 21.65 °C 88.38 % 6.63 m/s 290.81 Deg 0.11 µg/m3
2022-06-11 09:00 0.86 µg/m3 0.42 µg/m3 109.19 µg/m3 N/A N/A 21.21 °C 89.78 % 7.12 m/s 311.46 Deg 0.12 µg/m3
2022-06-11 08:00 3.99 µg/m3 0.45 µg/m3 105.02 µg/m3 N/A N/A 20.99 °C 89.84 % 7.22 m/s 314.98 Deg 0.63 µg/m3
2022-06-11 07:00 0.5 µg/m3 0.34 µg/m3 105.38 µg/m3 N/A N/A 20.83 °C 88.53 % 6.99 m/s 314.74 Deg 0.07 µg/m3
2022-06-11 06:00 0.64 µg/m3 0.39 µg/m3 101.53 µg/m3 N/A N/A 20.45 °C 89.5 % 5.97 m/s 312.92 Deg 0.04 µg/m3
2022-06-11 05:00 2.15 µg/m3 0.35 µg/m3 100.17 µg/m3 N/A N/A 20.27 °C 90.14 % 6.23 m/s 316.87 Deg 0.02 µg/m3
2022-06-11 04:00 2.35 µg/m3 0.37 µg/m3 103.97 µg/m3 N/A N/A 20.3 °C 90.24 % 6.96 m/s 322.05 Deg 0.01 µg/m3
2022-06-11 03:00 3.71 µg/m3 0.35 µg/m3 103.67 µg/m3 N/A N/A 20.21 °C 91.24 % 7.4 m/s 325.22 Deg 0.03 µg/m3
2022-06-11 02:00 0.95 µg/m3 0.33 µg/m3 108.27 µg/m3 N/A N/A 20.22 °C 91.14 % 8.7 m/s 322.73 Deg 0.02 µg/m3
2022-06-11 01:00 2.36 µg/m3 0.38 µg/m3 108.66 µg/m3 N/A N/A 20.33 °C 90.41 % 9.65 m/s 325.23 Deg 0.02 µg/m3
2022-06-11 00:00 3.6 µg/m3 0.39 µg/m3 105.09 µg/m3 N/A N/A 20.38 °C 89.64 % 9.46 m/s 320.16 Deg 0.02 µg/m3
2022-06-10 23:00 2.86 µg/m3 0.34 µg/m3 102.09 µg/m3 N/A N/A 20.61 °C 87.64 % 8.73 m/s 313.81 Deg 0.02 µg/m3
2022-06-10 22:00 4.84 µg/m3 0.35 µg/m3 98.02 µg/m3 N/A N/A 20.77 °C 85.89 % 8.9 m/s 304.82 Deg 0.03 µg/m3
2022-06-10 21:00 2.1 µg/m3 0.34 µg/m3 100.43 µg/m3 N/A N/A 20.82 °C 85.04 % 8.69 m/s 299.21 Deg 0.02 µg/m3
2022-06-10 20:00 1.8 µg/m3 0.32 µg/m3 100.89 µg/m3 N/A N/A 21.02 °C 83.71 % 9.29 m/s 307.84 Deg 0.02 µg/m3
2022-06-10 19:00 1.3 µg/m3 0.34 µg/m3 103.6 µg/m3 N/A N/A 21.29 °C 82.72 % 9.66 m/s 302.82 Deg 0.06 µg/m3
2022-06-10 18:00 0.87 µg/m3 0.36 µg/m3 100.13 µg/m3 N/A N/A 21.48 °C 82.09 % 10.51 m/s 269.14 Deg 0.11 µg/m3
2022-06-10 17:00 0.6 µg/m3 0.4 µg/m3 101.5 µg/m3 N/A N/A 21.63 °C 80.99 % 11.14 m/s 281.01 Deg 0.09 µg/m3
2022-06-10 16:00 0.99 µg/m3 0.49 µg/m3 102.85 µg/m3 N/A N/A 21.77 °C 80.17 % 10.72 m/s 268.09 Deg 0.14 µg/m3
2022-06-10 15:00 1.5 µg/m3 0.49 µg/m3 102.61 µg/m3 N/A N/A 21.87 °C 79.76 % 10.99 m/s 220.21 Deg 0.28 µg/m3
2022-06-10 14:00 0.61 µg/m3 0.52 µg/m3 97.96 µg/m3 N/A N/A 22.11 °C 79.59 % 9.51 m/s 256.46 Deg 0.09 µg/m3
2022-06-10 13:00 2.33 µg/m3 0.6 µg/m3 99.84 µg/m3 N/A N/A 21.62 °C 82.95 % 8.99 m/s 213.12 Deg 0.37 µg/m3
2022-06-10 12:00 1.5 µg/m3 0.54 µg/m3 96.3 µg/m3 N/A N/A 21.67 °C 79.46 % 9.3 m/s 250.06 Deg 0.24 µg/m3
2022-06-10 11:00 1.52 µg/m3 0.49 µg/m3 94.17 µg/m3 N/A N/A 21.58 °C 79.26 % 9.41 m/s 227.07 Deg 0.22 µg/m3
2022-06-10 10:00 2.01 µg/m3 0.46 µg/m3 88.51 µg/m3 N/A N/A 21.24 °C 79.62 % 9.72 m/s 244.32 Deg 0.38 µg/m3
2022-06-10 09:00 1.15 µg/m3 0.37 µg/m3 86.54 µg/m3 N/A N/A 20.98 °C 80.28 % 9.02 m/s 244.07 Deg 0.22 µg/m3
2022-06-10 08:00 1.03 µg/m3 0.45 µg/m3 84.51 µg/m3 N/A N/A 20.47 °C 83.25 % 8.89 m/s 288.98 Deg 0.18 µg/m3
2022-06-10 07:00 2.09 µg/m3 0.38 µg/m3 81.64 µg/m3 N/A N/A 20.22 °C 85.39 % 9 m/s 280.26 Deg 0.24 µg/m3
2022-06-10 06:00 1.57 µg/m3 0.36 µg/m3 81.74 µg/m3 N/A N/A 19.98 °C 86.11 % 8.59 m/s 297.94 Deg 0.09 µg/m3
2022-06-10 05:00 1.21 µg/m3 0.35 µg/m3 82.44 µg/m3 N/A N/A 19.98 °C 84.62 % 8.81 m/s 285.01 Deg 0.02 µg/m3
2022-06-10 04:00 1.46 µg/m3 0.42 µg/m3 80.22 µg/m3 N/A N/A 20.04 °C 83.63 % 8.5 m/s 295.5 Deg 0.02 µg/m3
2022-06-10 03:00 0.87 µg/m3 0.38 µg/m3 81.47 µg/m3 N/A N/A 20.08 °C 82.39 % 8.81 m/s 288.03 Deg 0.01 µg/m3
2022-06-10 02:00 2.62 µg/m3 0.4 µg/m3 80.87 µg/m3 N/A N/A 20.35 °C 79.86 % 9.54 m/s 295.17 Deg 0.03 µg/m3
2022-06-10 01:00 2.54 µg/m3 0.4 µg/m3 79.95 µg/m3 N/A N/A 20.54 °C 80.07 % 9.22 m/s 297.43 Deg 0.02 µg/m3
2022-06-10 00:00 2.87 µg/m3 0.44 µg/m3 81.07 µg/m3 N/A N/A 20.63 °C 81.09 % 8.58 m/s 291.48 Deg 0.03 µg/m3
2022-06-09 23:00 1.78 µg/m3 0.4 µg/m3 86.49 µg/m3 N/A N/A 20.83 °C 81.02 % 7.95 m/s 280.03 Deg 0.02 µg/m3
2022-06-09 22:00 1.57 µg/m3 0.39 µg/m3 88.59 µg/m3 N/A N/A 21.13 °C 81.7 % 8.77 m/s 295.87 Deg 0.01 µg/m3
2022-06-09 21:00 0.8 µg/m3 0.33 µg/m3 93.71 µg/m3 N/A N/A 21.17 °C 87.77 % 8.18 m/s 293.1 Deg 0.02 µg/m3
2022-06-09 20:00 1.21 µg/m3 0.39 µg/m3 100.12 µg/m3 N/A N/A 21.25 °C 89.75 % 7.12 m/s 283.52 Deg 0.03 µg/m3
2022-06-09 19:00 0.32 µg/m3 0.36 µg/m3 103.27 µg/m3 N/A N/A 21.72 °C 87.97 % 6.87 m/s 278.04 Deg 0.03 µg/m3
2022-06-09 18:00 0.09 µg/m3 0.38 µg/m3 100.36 µg/m3 N/A N/A 22.26 °C 84.56 % 7.03 m/s 244.13 Deg 0.05 µg/m3
2022-06-09 17:00 0.16 µg/m3 0.35 µg/m3 96.72 µg/m3 N/A N/A 22.61 °C 82.92 % 7.12 m/s 169.02 Deg 0.05 µg/m3
2022-06-09 16:00 0.57 µg/m3 0.41 µg/m3 94.47 µg/m3 N/A N/A 22.61 °C 82.87 % 7.55 m/s 192.51 Deg 0.12 µg/m3
2022-06-09 15:00 0.46 µg/m3 0.45 µg/m3 94.41 µg/m3 N/A N/A 23.04 °C 81.58 % 6.96 m/s 216.64 Deg 0.1 µg/m3
2022-06-09 14:00 1.46 µg/m3 0.63 µg/m3 97.34 µg/m3 N/A N/A 23.01 °C 82.42 % 7.34 m/s 203.82 Deg 0.25 µg/m3
2022-06-09 13:00 6.35 µg/m3 0.74 µg/m3 79.91 µg/m3 N/A N/A 23.48 °C 76.82 % 6.68 m/s 240.53 Deg 1.87 µg/m3
2022-06-09 12:00 5.21 µg/m3 0.64 µg/m3 82.37 µg/m3 N/A N/A 23.36 °C 77.81 % 6.07 m/s 219.09 Deg 1.47 µg/m3
2022-06-09 11:00 4.3 µg/m3 0.61 µg/m3 81.34 µg/m3 N/A N/A 23.05 °C 82.06 % 6.11 m/s 174.75 Deg 1.09 µg/m3
2022-06-09 10:00 2.64 µg/m3 0.52 µg/m3 84.64 µg/m3 N/A N/A 22.83 °C 83.54 % 5.59 m/s 166.26 Deg 0.63 µg/m3
2022-06-09 09:00 3.81 µg/m3 0.52 µg/m3 79.64 µg/m3 N/A N/A 22.92 °C 83.5 % 4.58 m/s 222.51 Deg 1.57 µg/m3
2022-06-09 08:00 3.29 µg/m3 0.44 µg/m3 82.16 µg/m3 N/A N/A 22.3 °C 86.73 % 4.16 m/s 286.1 Deg 0.61 µg/m3
2022-06-09 07:00 5.76 µg/m3 0.35 µg/m3 77.07 µg/m3 N/A N/A 21.98 °C 88.39 % 4.31 m/s 246.31 Deg 0.7 µg/m3
2022-06-09 06:00 3.19 µg/m3 0.35 µg/m3 80.56 µg/m3 N/A N/A 21.68 °C 88.94 % 4.12 m/s 315.94 Deg 0.15 µg/m3
2022-06-09 05:00 2.22 µg/m3 0.35 µg/m3 82.32 µg/m3 N/A N/A 21.77 °C 86.19 % 3.58 m/s 293.9 Deg 0.02 µg/m3
2022-06-09 04:00 2.3 µg/m3 0.35 µg/m3 85.02 µg/m3 N/A N/A 21.67 °C 86.15 % 4.48 m/s 289.24 Deg 0.03 µg/m3
2022-06-09 03:00 4.65 µg/m3 0.34 µg/m3 85.65 µg/m3 N/A N/A 21.36 °C 90.12 % 5.2 m/s 253.93 Deg 0.03 µg/m3
2022-06-09 02:00 1.56 µg/m3 0.26 µg/m3 91.97 µg/m3 N/A N/A 21.09 °C 95.18 % 4.72 m/s 265.56 Deg 0.04 µg/m3
2022-06-09 01:00 2.16 µg/m3 0.28 µg/m3 91.55 µg/m3 N/A N/A 21.11 °C 95.22 % 4.35 m/s 262.51 Deg 0.02 µg/m3
2022-06-09 00:00 1.64 µg/m3 0.28 µg/m3 94.98 µg/m3 N/A N/A 21.14 °C 94.29 % 3.9 m/s 257.73 Deg 0.03 µg/m3
2022-06-08 23:00 1.21 µg/m3 0.24 µg/m3 100.54 µg/m3 N/A N/A 21.07 °C 96.06 % 4.22 m/s 263.27 Deg 0.02 µg/m3
2022-06-08 22:00 0.36 µg/m3 0.27 µg/m3 103.08 µg/m3 N/A N/A 21.15 °C 96.96 % 3.55 m/s 246.63 Deg 0.01 µg/m3
2022-06-08 21:00 -0.03 µg/m3 0.34 µg/m3 104.4 µg/m3 N/A N/A 21.18 °C 96.55 % 3.16 m/s 234.98 Deg 0.01 µg/m3
2022-06-08 20:00 -0 µg/m3 0.34 µg/m3 107.62 µg/m3 N/A N/A 21.32 °C 96.9 % 3.73 m/s 245.75 Deg 0.02 µg/m3
2022-06-08 19:00 -0.29 µg/m3 0.45 µg/m3 105.31 µg/m3 N/A N/A 21.78 °C 95.87 % 4.39 m/s 249.94 Deg 0.01 µg/m3
2022-06-08 18:00 0.4 µg/m3 0.49 µg/m3 111.94 µg/m3 N/A N/A 22.2 °C 94.12 % 4.82 m/s 199.29 Deg 0.04 µg/m3
2022-06-08 17:00 -0.02 µg/m3 0.51 µg/m3 104.54 µg/m3 N/A N/A 22.63 °C 92.22 % 5.1 m/s 220.25 Deg 0.04 µg/m3
2022-06-08 16:00 1.1 µg/m3 0.55 µg/m3 103.71 µg/m3 N/A N/A 23.22 °C 89.23 % 4.92 m/s 226.77 Deg 0.2 µg/m3
2022-06-08 15:00 0.76 µg/m3 0.57 µg/m3 101.98 µg/m3 N/A N/A 24.05 °C 81.79 % 4.84 m/s 199.51 Deg 0.16 µg/m3
2022-06-08 14:00 0.36 µg/m3 0.64 µg/m3 109.06 µg/m3 N/A N/A 23.74 °C 85.78 % 3.99 m/s 249.85 Deg 0.08 µg/m3
2022-06-08 13:00 2 µg/m3 0.66 µg/m3 107.63 µg/m3 N/A N/A 24.19 °C 82.44 % 3.67 m/s 216.37 Deg 0.37 µg/m3
2022-06-08 12:00 1.9 µg/m3 0.55 µg/m3 102.81 µg/m3 N/A N/A 23.47 °C 87.04 % 4.55 m/s 236 Deg 0.37 µg/m3
2022-06-08 11:00 0.43 µg/m3 0.54 µg/m3 101.31 µg/m3 N/A N/A 23.25 °C 87.49 % 4.15 m/s 234.37 Deg 0.09 µg/m3
2022-06-08 10:00 1.87 µg/m3 0.88 µg/m3 102.76 µg/m3 N/A N/A 23.76 °C 78.98 % 3.23 m/s 221.41 Deg 0.3 µg/m3
2022-06-08 09:00 2.32 µg/m3 1.19 µg/m3 96.2 µg/m3 N/A N/A 24.54 °C 67.68 % 2.16 m/s 174.82 Deg 0.36 µg/m3
2022-06-08 08:00 6.27 µg/m3 0.59 µg/m3 85.72 µg/m3 N/A N/A 23.02 °C 80.03 % 2.67 m/s 230.06 Deg 1.16 µg/m3
2022-06-08 07:00 4.81 µg/m3 0.39 µg/m3 80.23 µg/m3 N/A N/A 22.3 °C 88.79 % 2.84 m/s 192.94 Deg 0.62 µg/m3
2022-06-08 06:00 7.68 µg/m3 0.38 µg/m3 71.25 µg/m3 N/A N/A 21.66 °C 90.67 % 3.4 m/s 130.97 Deg 0.29 µg/m3
2022-06-08 05:00 4.28 µg/m3 0.36 µg/m3 78.53 µg/m3 N/A N/A 21.63 °C 91.15 % 5.11 m/s 97.48 Deg 0.03 µg/m3
2022-06-08 04:00 7.28 µg/m3 0.3 µg/m3 81.92 µg/m3 N/A N/A 21.66 °C 93.49 % 5.5 m/s 334.95 Deg 0.02 µg/m3
2022-06-08 03:00 2.09 µg/m3 0.37 µg/m3 83.81 µg/m3 N/A N/A 21.82 °C 92.77 % 5.62 m/s 343.41 Deg 0.02 µg/m3
2022-06-08 02:00 2.99 µg/m3 0.37 µg/m3 82.73 µg/m3 N/A N/A 22.08 °C 89.9 % 6.03 m/s 333.05 Deg 0.03 µg/m3
2022-06-08 01:00 2.81 µg/m3 0.4 µg/m3 84.74 µg/m3 N/A N/A 22.2 °C 90.68 % 5.85 m/s 327.8 Deg 0.02 µg/m3
2022-06-08 00:00 2.46 µg/m3 0.36 µg/m3 91.6 µg/m3 N/A N/A 22.38 °C 87.9 % 4.45 m/s 275.67 Deg 0.03 µg/m3
2022-06-07 23:00 2.14 µg/m3 0.39 µg/m3 95.35 µg/m3 N/A N/A 22.38 °C 85.73 % 4.39 m/s 251.98 Deg 0.02 µg/m3
2022-06-07 22:00 5.44 µg/m3 0.36 µg/m3 83.7 µg/m3 N/A N/A 22.12 °C 87.73 % 4.25 m/s 237.93 Deg 0.02 µg/m3
2022-06-07 21:00 4.34 µg/m3 0.33 µg/m3 92.18 µg/m3 N/A N/A 21.82 °C 91.77 % 3.22 m/s 242.17 Deg 0.02 µg/m3
2022-06-07 20:00 2.06 µg/m3 0.5 µg/m3 108.97 µg/m3 N/A N/A 22.35 °C 89.45 % 3.13 m/s 236.56 Deg 0.03 µg/m3
2022-06-07 19:00 3.37 µg/m3 0.89 µg/m3 113.9 µg/m3 N/A N/A 23.82 °C 75.63 % 2.41 m/s 254.65 Deg 0.32 µg/m3
2022-06-07 18:00 2.93 µg/m3 1.19 µg/m3 119.47 µg/m3 N/A N/A 24.9 °C 64.98 % 2.77 m/s 271.61 Deg 0.2 µg/m3
2022-06-07 17:00 2.58 µg/m3 0.83 µg/m3 117.23 µg/m3 N/A N/A 24.24 °C 76.56 % 3.46 m/s 96.37 Deg 0.28 µg/m3
2022-06-07 16:00 0.66 µg/m3 0.6 µg/m3 110.72 µg/m3 N/A N/A 24.11 °C 80.69 % 4.12 m/s 244.23 Deg 0.1 µg/m3
2022-06-07 15:00 0.51 µg/m3 0.66 µg/m3 109.11 µg/m3 N/A N/A 24.58 °C 76.11 % 3.76 m/s 236.21 Deg 0.08 µg/m3
2022-06-07 14:00 0.54 µg/m3 0.7 µg/m3 107.55 µg/m3 N/A N/A 24.86 °C 73.53 % 3.66 m/s 253.25 Deg 0.09 µg/m3
2022-06-07 13:00 1.35 µg/m3 0.89 µg/m3 110.82 µg/m3 N/A N/A 25.56 °C 67.13 % 4.21 m/s 174.79 Deg 0.15 µg/m3
2022-06-07 12:00 2.48 µg/m3 1.22 µg/m3 109.55 µg/m3 N/A N/A 26.39 °C 55.17 % 3.26 m/s 170.27 Deg 0.3 µg/m3
2022-06-07 11:00 5.59 µg/m3 1.15 µg/m3 91.75 µg/m3 N/A N/A 25.38 °C 64.88 % 4.23 m/s 109.86 Deg 1.13 µg/m3
2022-06-07 10:00 7.98 µg/m3 0.89 µg/m3 85.47 µg/m3 N/A N/A 27.19 °C 47.76 % 4.25 m/s 182.73 Deg 1.52 µg/m3
2022-06-07 09:00 9.49 µg/m3 1.38 µg/m3 83.26 µg/m3 N/A N/A 27.88 °C 39.7 % 4.81 m/s 310.84 Deg 1.99 µg/m3
2022-06-07 08:00 6.19 µg/m3 1.12 µg/m3 79.34 µg/m3 N/A N/A 26.2 °C 53.13 % 5.32 m/s 315.02 Deg 0.89 µg/m3
2022-06-07 07:00 5.75 µg/m3 0.84 µg/m3 76.22 µg/m3 N/A N/A 24.35 °C 67.67 % 5.27 m/s 175.34 Deg 1 µg/m3
2022-06-07 06:00 2.2 µg/m3 0.66 µg/m3 84.52 µg/m3 N/A N/A 24.09 °C 64.84 % 5.01 m/s 195.52 Deg 0.08 µg/m3
2022-06-07 05:00 1.21 µg/m3 0.55 µg/m3 85.29 µg/m3 N/A N/A 23.37 °C 72.12 % 4.5 m/s 281.71 Deg 0.01 µg/m3
2022-06-07 04:00 3.42 µg/m3 0.55 µg/m3 74.12 µg/m3 N/A N/A 22.67 °C 82.56 % 2.97 m/s 223.19 Deg 0.01 µg/m3
2022-06-07 03:00 1.93 µg/m3 0.5 µg/m3 72.87 µg/m3 N/A N/A 22.28 °C 89.15 % 3.71 m/s 255.65 Deg 0.02 µg/m3
2022-06-07 02:00 2.53 µg/m3 0.55 µg/m3 73.11 µg/m3 N/A N/A 22.37 °C 90.38 % 4 m/s 235.57 Deg 0.02 µg/m3
2022-06-07 01:00 5.83 µg/m3 0.71 µg/m3 70.22 µg/m3 N/A N/A 22.79 °C 85.46 % 3.27 m/s 262.76 Deg 0.02 µg/m3
2022-06-07 00:00 3.58 µg/m3 0.58 µg/m3 77.51 µg/m3 N/A N/A 22.81 °C 85.13 % 3.99 m/s 264.63 Deg 0.02 µg/m3
2022-06-06 23:00 3.22 µg/m3 0.49 µg/m3 81.33 µg/m3 N/A N/A 22.67 °C 86.8 % 4.35 m/s 205.82 Deg 0.01 µg/m3
2022-06-06 22:00 1.61 µg/m3 0.47 µg/m3 91.23 µg/m3 N/A N/A 22.93 °C 85.27 % 5.04 m/s 204.89 Deg 0.02 µg/m3
2022-06-06 21:00 1.7 µg/m3 0.48 µg/m3 94.56 µg/m3 N/A N/A 22.97 °C 84.66 % 5.33 m/s 212.99 Deg 0.01 µg/m3
2022-06-06 20:00 1.97 µg/m3 0.45 µg/m3 97.66 µg/m3 N/A N/A 22.74 °C 87.81 % 5.26 m/s 203.39 Deg 0.02 µg/m3
2022-06-06 19:00 2.04 µg/m3 0.48 µg/m3 102.64 µg/m3 N/A N/A 22.76 °C 88.48 % 5.61 m/s 181.66 Deg 0.05 µg/m3
2022-06-06 18:00 1.54 µg/m3 0.58 µg/m3 108.3 µg/m3 N/A N/A 23.02 °C 87.67 % 5.64 m/s 152.77 Deg 0.12 µg/m3
2022-06-06 17:00 1.47 µg/m3 0.58 µg/m3 110.27 µg/m3 N/A N/A 23.19 °C 88.04 % 6.05 m/s 148.46 Deg 0.16 µg/m3
2022-06-06 16:00 0.38 µg/m3 0.61 µg/m3 103.6 µg/m3 N/A N/A 23.36 °C 87.01 % 6.41 m/s 145.57 Deg 0.06 µg/m3
2022-06-06 15:00 1.16 µg/m3 0.88 µg/m3 106.67 µg/m3 N/A N/A 23.51 °C 86.42 % 6.41 m/s 192.23 Deg 0.15 µg/m3
2022-06-06 14:00 3.77 µg/m3 0.97 µg/m3 94.79 µg/m3 N/A N/A 23.75 °C 86.56 % 6.49 m/s 202.47 Deg 0.72 µg/m3
2022-06-06 13:00 4.65 µg/m3 0.84 µg/m3 92.86 µg/m3 N/A N/A 23.59 °C 88.02 % 6.81 m/s 223.09 Deg 1.04 µg/m3
2022-06-06 12:00 3.77 µg/m3 0.76 µg/m3 97.29 µg/m3 N/A N/A 23.47 °C 89.09 % 6.83 m/s 205.59 Deg 0.66 µg/m3
2022-06-06 11:00 2.09 µg/m3 0.59 µg/m3 100.61 µg/m3 N/A N/A 23.21 °C 90.13 % 6.73 m/s 211.66 Deg 0.26 µg/m3
2022-06-06 10:00 2.49 µg/m3 0.67 µg/m3 96.09 µg/m3 N/A N/A 23 °C 90.82 % 6.45 m/s 199.68 Deg 0.34 µg/m3
2022-06-06 09:00 7.15 µg/m3 0.7 µg/m3 85.22 µg/m3 N/A N/A 22.91 °C 90.85 % 6.28 m/s 181.02 Deg 1.35 µg/m3
2022-06-06 08:00 7.36 µg/m3 0.63 µg/m3 78.94 µg/m3 N/A N/A 22.89 °C 90.47 % 5.38 m/s 211.77 Deg 1.15 µg/m3
2022-06-06 07:00 4.91 µg/m3 0.47 µg/m3 74.75 µg/m3 N/A N/A 22.38 °C 93.78 % 5.05 m/s 217.69 Deg 0.47 µg/m3
2022-06-06 06:00 3.51 µg/m3 0.47 µg/m3 74.63 µg/m3 N/A N/A 22.25 °C 91.22 % 5.37 m/s 232.11 Deg 0.11 µg/m3
2022-06-06 05:00 2.16 µg/m3 0.45 µg/m3 76.61 µg/m3 N/A N/A 22.22 °C 93.86 % 5.16 m/s 264.89 Deg 0.01 µg/m3
2022-06-06 04:00 2.33 µg/m3 0.43 µg/m3 75.95 µg/m3 N/A N/A 22.26 °C 95.72 % 4.96 m/s 248.29 Deg 0.02 µg/m3
2022-06-06 03:00 2.37 µg/m3 0.41 µg/m3 79.26 µg/m3 N/A N/A 22.39 °C 94.47 % 4.21 m/s 259.1 Deg 0.03 µg/m3
2022-06-06 02:00 0.98 µg/m3 0.39 µg/m3 87.01 µg/m3 N/A N/A 22.51 °C 93.7 % 3.63 m/s 243.59 Deg 0.01 µg/m3
2022-06-06 01:00 0.85 µg/m3 0.41 µg/m3 89.73 µg/m3 N/A N/A 22.67 °C 92.46 % 2.51 m/s 211.78 Deg 0.02 µg/m3
2022-06-06 00:00 3.02 µg/m3 0.53 µg/m3 83.33 µg/m3 N/A N/A 22.96 °C 89.39 % 2.17 m/s 243.54 Deg 0.01 µg/m3
2022-06-05 23:00 4.81 µg/m3 0.52 µg/m3 83.7 µg/m3 N/A N/A 23.2 °C 86.26 % 2.24 m/s 280.69 Deg 0.02 µg/m3
2022-06-05 22:00 3.51 µg/m3 0.49 µg/m3 93.36 µg/m3 N/A N/A 22.99 °C 92.5 % 2.22 m/s 299.92 Deg 0.03 µg/m3
2022-06-05 21:00 10.98 µg/m3 0.84 µg/m3 97.26 µg/m3 N/A N/A 23.41 °C 88.86 % 2.07 m/s 304.9 Deg 0.03 µg/m3
2022-06-05 20:00 3.31 µg/m3 0.85 µg/m3 113.08 µg/m3 N/A N/A 23.64 °C 85.94 % 3.09 m/s 296.64 Deg 0.03 µg/m3
2022-06-05 19:00 2.16 µg/m3 1.1 µg/m3 107.1 µg/m3 N/A N/A 24.52 °C 84.51 % 4.13 m/s 255.53 Deg 0.06 µg/m3
2022-06-05 18:00 1.46 µg/m3 1.9 µg/m3 111.96 µg/m3 N/A N/A 26.1 °C 67.26 % 4.9 m/s 227.44 Deg 0.07 µg/m3
2022-06-05 17:00 1.14 µg/m3 1.59 µg/m3 110.77 µg/m3 N/A N/A 28.04 °C 48.68 % 5.11 m/s 167.03 Deg 0.04 µg/m3
2022-06-05 16:00 1.35 µg/m3 1.03 µg/m3 108.42 µg/m3 N/A N/A 29.8 °C 37.52 % 4.43 m/s 201.15 Deg 0.05 µg/m3
2022-06-05 15:00 1.2 µg/m3 0.96 µg/m3 113.15 µg/m3 N/A N/A 30.24 °C 34.26 % 4.09 m/s 189.68 Deg 0.03 µg/m3
2022-06-05 14:00 1.91 µg/m3 1.18 µg/m3 124.63 µg/m3 N/A N/A 28.1 °C 51.7 % 3.76 m/s 183.51 Deg 0.17 µg/m3
2022-06-05 13:00 4.77 µg/m3 1.64 µg/m3 115.33 µg/m3 N/A N/A 27.54 °C 54.83 % 3.19 m/s 127.16 Deg 0.69 µg/m3
2022-06-05 12:00 7.78 µg/m3 1.74 µg/m3 105.48 µg/m3 N/A N/A 28.24 °C 47.87 % 3.14 m/s 235.95 Deg 1.36 µg/m3
2022-06-05 11:00 3.94 µg/m3 1.22 µg/m3 110.37 µg/m3 N/A N/A 28.53 °C 42.3 % 3.29 m/s 170.93 Deg 0.54 µg/m3
2022-06-05 10:00 5.01 µg/m3 1.41 µg/m3 105.14 µg/m3 N/A N/A 27.56 °C 48.77 % 4.56 m/s 238.2 Deg 0.78 µg/m3
2022-06-05 09:00 11.55 µg/m3 1.98 µg/m3 89.27 µg/m3 N/A N/A 25.86 °C 61.86 % 4.37 m/s 223.96 Deg 2.18 µg/m3
2022-06-05 08:00 14.13 µg/m3 1.95 µg/m3 83.26 µg/m3 N/A N/A 25.2 °C 67.67 % 4.07 m/s 210.46 Deg 2.36 µg/m3
2022-06-05 07:00 23.23 µg/m3 2.11 µg/m3 70.3 µg/m3 N/A N/A 24.65 °C 71.83 % 3.93 m/s 215.98 Deg 2.77 µg/m3
2022-06-05 06:00 10.76 µg/m3 0.86 µg/m3 85.14 µg/m3 N/A N/A 24.11 °C 74.38 % 3.9 m/s 209.73 Deg 0.39 µg/m3
2022-06-05 05:00 0.03 µg/m3 0.46 µg/m3 95.83 µg/m3 N/A N/A 24.31 °C 72.14 % 3.4 m/s 228.02 Deg 0.01 µg/m3
2022-06-05 04:00 0.07 µg/m3 0.7 µg/m3 102.22 µg/m3 N/A N/A 25.15 °C 53.26 % 2.89 m/s 190.75 Deg 0 µg/m3
2022-06-05 03:00 0.08 µg/m3 0.53 µg/m3 102.68 µg/m3 N/A N/A 25.26 °C 52.64 % 3.28 m/s 133.33 Deg 0 µg/m3
2022-06-05 02:00 0.14 µg/m3 0.49 µg/m3 101.66 µg/m3 N/A N/A 25.15 °C 55.48 % 2.94 m/s 172.15 Deg 0 µg/m3
2022-06-05 01:00 0.3 µg/m3 0.52 µg/m3 99.8 µg/m3 N/A N/A 25.14 °C 57.05 % 3.16 m/s 194.52 Deg 0.01 µg/m3
2022-06-05 00:00 1.94 µg/m3 0.69 µg/m3 97.72 µg/m3 N/A N/A 25.07 °C 58.56 % 2.82 m/s 160.17 Deg 0 µg/m3
2022-06-04 23:00 1.6 µg/m3 0.63 µg/m3 98.34 µg/m3 N/A N/A 24.6 °C 68.28 % 2.74 m/s 176.52 Deg 0.01 µg/m3
2022-06-04 22:00 3.12 µg/m3 0.83 µg/m3 98.63 µg/m3 N/A N/A 25.18 °C 57.4 % 1.83 m/s 144.53 Deg -0 µg/m3
2022-06-04 21:00 2.88 µg/m3 0.68 µg/m3 103.32 µg/m3 N/A N/A 25.64 °C 51.84 % 1.67 m/s 126.32 Deg 0 µg/m3
2022-06-04 20:00 2.21 µg/m3 0.62 µg/m3 105.08 µg/m3 N/A N/A 25.87 °C 50.37 % 2.05 m/s 184.62 Deg 0.01 µg/m3
2022-06-04 19:00 4.34 µg/m3 0.67 µg/m3 104.89 µg/m3 N/A N/A 26.69 °C 45.99 % 2.43 m/s 189.46 Deg 0.51 µg/m3
2022-06-04 18:00 0.96 µg/m3 0.63 µg/m3 109.41 µg/m3 N/A N/A 27.96 °C 38.16 % 2.89 m/s 220.43 Deg 0.02 µg/m3
2022-06-04 17:00 1.12 µg/m3 0.7 µg/m3 112.28 µg/m3 N/A N/A 28.09 °C 38.85 % 3.48 m/s 150.08 Deg 0.04 µg/m3
2022-06-04 16:00 1.88 µg/m3 1.07 µg/m3 113.07 µg/m3 N/A N/A 27.81 °C 41 % 4.1 m/s 166.55 Deg 0.12 µg/m3
2022-06-04 15:00 1.11 µg/m3 1.08 µg/m3 106.79 µg/m3 N/A N/A 29 °C 29.91 % 3.38 m/s 251.84 Deg 0.05 µg/m3
2022-06-04 14:00 2.07 µg/m3 1.4 µg/m3 105.78 µg/m3 N/A N/A 27.86 °C 35.05 % 3.87 m/s 209.15 Deg 0.25 µg/m3
2022-06-04 13:00 4.68 µg/m3 1.53 µg/m3 102.84 µg/m3 N/A N/A 27.48 °C 37.64 % 4.07 m/s 226.77 Deg 0.79 µg/m3
2022-06-04 12:00 10 µg/m3 1.88 µg/m3 98.59 µg/m3 N/A N/A 26.88 °C 42.2 % 3.82 m/s 234.77 Deg 2.11 µg/m3
2022-06-04 11:00 20.84 µg/m3 3.29 µg/m3 88.6 µg/m3 N/A N/A 26.58 °C 41.39 % 3.73 m/s 263.65 Deg 5.53 µg/m3
2022-06-04 10:00 30.31 µg/m3 4.51 µg/m3 80.02 µg/m3 N/A N/A 25.97 °C 45.41 % 4.07 m/s 228.92 Deg 7.79 µg/m3
2022-06-04 09:00 24.19 µg/m3 3.61 µg/m3 81.67 µg/m3 N/A N/A 25.37 °C 51.55 % 4.07 m/s 279.6 Deg 5.93 µg/m3
2022-06-04 08:00 10.17 µg/m3 2.36 µg/m3 97.24 µg/m3 N/A N/A 26.54 °C 38.55 % 2.56 m/s 229.73 Deg 1.52 µg/m3
2022-06-04 07:00 17.36 µg/m3 2.69 µg/m3 89.3 µg/m3 N/A N/A 25.94 °C 40.36 % 2.01 m/s 199.12 Deg 1.63 µg/m3
2022-06-04 06:00 43.2 µg/m3 3.46 µg/m3 58.52 µg/m3 N/A N/A 24.37 °C 49.65 % 2.46 m/s 249.57 Deg 2.28 µg/m3
2022-06-04 05:00 9.5 µg/m3 1.74 µg/m3 94.94 µg/m3 N/A N/A 25.26 °C 37.12 % 2.2 m/s 234.02 Deg 0.01 µg/m3
2022-06-04 04:00 27.94 µg/m3 2.85 µg/m3 65.6 µg/m3 N/A N/A 25.63 °C 31.98 % 1.7 m/s 260.25 Deg 0 µg/m3
2022-06-04 03:00 0.12 µg/m3 0.9 µg/m3 110.17 µg/m3 N/A N/A 26.41 °C 30.45 % 1.64 m/s 137.9 Deg -0.01 µg/m3
2022-06-04 02:00 -0.23 µg/m3 0.86 µg/m3 109.09 µg/m3 N/A N/A 26.67 °C 29.33 % 1.5 m/s 257.03 Deg -0.01 µg/m3
2022-06-04 01:00 15.82 µg/m3 2.59 µg/m3 90.68 µg/m3 N/A N/A 26.52 °C 29.01 % 1.34 m/s 292.61 Deg 0.01 µg/m3
2022-06-04 00:00 81.21 µg/m3 4.98 µg/m3 32.09 µg/m3 N/A N/A 25.41 °C 38.22 % 1.67 m/s 222.04 Deg 1.19 µg/m3
2022-06-03 23:00 7.59 µg/m3 0.95 µg/m3 105.89 µg/m3 N/A N/A 24.93 °C 45.45 % 1.98 m/s 209.44 Deg 0 µg/m3
2022-06-03 22:00 3.33 µg/m3 0.66 µg/m3 103.48 µg/m3 N/A N/A 25.68 °C 36.17 % 2.38 m/s 256.19 Deg 0 µg/m3
2022-06-03 21:00 6.06 µg/m3 0.87 µg/m3 114.74 µg/m3 N/A N/A 24.71 °C 55.41 % 2.59 m/s 307.84 Deg 0.01 µg/m3
2022-06-03 20:00 11.71 µg/m3 0.8 µg/m3 107.03 µg/m3 N/A N/A 24.58 °C 61.92 % 2.36 m/s 214.21 Deg 0.02 µg/m3
2022-06-03 19:00 0.83 µg/m3 0.72 µg/m3 119.49 µg/m3 N/A N/A 25.28 °C 57.52 % 2.31 m/s 171.22 Deg 0.02 µg/m3
2022-06-03 18:00 0.62 µg/m3 0.74 µg/m3 114.92 µg/m3 N/A N/A 26.32 °C 44.76 % 3.03 m/s 259.05 Deg 0.02 µg/m3
2022-06-03 17:00 0.67 µg/m3 0.82 µg/m3 116.2 µg/m3 N/A N/A 27.36 °C 41.04 % 3.05 m/s 235.11 Deg 0.03 µg/m3
2022-06-03 16:00 0.88 µg/m3 0.94 µg/m3 119.65 µg/m3 N/A N/A 26.87 °C 42.92 % 3.6 m/s 197.17 Deg 0.06 µg/m3
2022-06-03 15:00 1.46 µg/m3 1.17 µg/m3 117.18 µg/m3 N/A N/A 28.28 °C 35.33 % 2.92 m/s 224.1 Deg 0.14 µg/m3
2022-06-03 14:00 3.04 µg/m3 1.55 µg/m3 121.07 µg/m3 N/A N/A 27.7 °C 38.26 % 3.15 m/s 219.76 Deg 0.35 µg/m3
2022-06-03 13:00 4.61 µg/m3 2.15 µg/m3 125.73 µg/m3 N/A N/A 26.93 °C 43.88 % 3.31 m/s 271.78 Deg 0.57 µg/m3
2022-06-03 12:00 2.93 µg/m3 1.99 µg/m3 120.28 µg/m3 N/A N/A 26.91 °C 38.05 % 3.77 m/s 317.23 Deg 0.35 µg/m3
2022-06-03 11:00 4.29 µg/m3 2.13 µg/m3 118.63 µg/m3 N/A N/A 26.91 °C 37.7 % 3.81 m/s 236.29 Deg 0.55 µg/m3
2022-06-03 10:00 4.74 µg/m3 2.25 µg/m3 120.27 µg/m3 N/A N/A 26.89 °C 38.89 % 2.94 m/s 258.92 Deg 0.54 µg/m3
2022-06-03 09:00 15.32 µg/m3 2.87 µg/m3 110.57 µg/m3 N/A N/A 25.64 °C 45.54 % 2.85 m/s 233.75 Deg 3.29 µg/m3
2022-06-03 08:00 3.1 µg/m3 1.02 µg/m3 114.43 µg/m3 N/A N/A 25.01 °C 47.12 % 3.17 m/s 162.22 Deg 0.56 µg/m3
2022-06-03 07:00 3.21 µg/m3 0.77 µg/m3 104.75 µg/m3 N/A N/A 24.33 °C 50.54 % 1.96 m/s 228.68 Deg 0.2 µg/m3
2022-06-03 06:00 1.86 µg/m3 1.03 µg/m3 110.7 µg/m3 N/A N/A 24.85 °C 42.18 % 1.13 m/s 206.32 Deg 0.04 µg/m3
2022-06-03 05:00 1.8 µg/m3 1.28 µg/m3 112.62 µg/m3 N/A N/A 25.36 °C 36.92 % 0.28 m/s 226.73 Deg 0.01 µg/m3
2022-06-03 04:00 2.03 µg/m3 1.03 µg/m3 112.2 µg/m3 N/A N/A 24.84 °C 43.09 % 0.72 m/s 163.54 Deg 0 µg/m3
2022-06-03 03:00 2.44 µg/m3 0.9 µg/m3 111.16 µg/m3 N/A N/A 24.3 °C 48.55 % 0.9 m/s 233.83 Deg -0 µg/m3
2022-06-03 02:00 2.71 µg/m3 0.82 µg/m3 110.12 µg/m3 N/A N/A 24.04 °C 53.21 % 1.83 m/s 177.54 Deg -0 µg/m3
2022-06-03 01:00 6.52 µg/m3 0.83 µg/m3 97.62 µg/m3 N/A N/A 24.66 °C 45.87 % 1.32 m/s 195.09 Deg 0.01 µg/m3
2022-06-03 00:00 7.08 µg/m3 0.84 µg/m3 98.13 µg/m3 N/A N/A 24.92 °C 44.1 % 1.26 m/s 143.78 Deg 0 µg/m3
2022-06-02 23:00 6.3 µg/m3 0.86 µg/m3 99.4 µg/m3 N/A N/A 25.48 °C 42.51 % 2.45 m/s 56.58 Deg 0 µg/m3
2022-06-02 22:00 4.9 µg/m3 0.81 µg/m3 105.37 µg/m3 N/A N/A 25.6 °C 43.09 % 2.5 m/s 59.26 Deg 0 µg/m3
2022-06-02 21:00 8.41 µg/m3 0.9 µg/m3 98.41 µg/m3 N/A N/A 25.19 °C 45.75 % 1.62 m/s 37.05 Deg 0.01 µg/m3
2022-06-02 20:00 3.82 µg/m3 0.73 µg/m3 113.5 µg/m3 N/A N/A 24.6 °C 52.63 % 1.11 m/s 240.51 Deg 0.02 µg/m3
2022-06-02 19:00 2.6 µg/m3 0.68 µg/m3 109.59 µg/m3 14.22 µg/m3 12.36 µg/m3 26.2 °C 43.68 % 2.35 m/s 185.08 Deg 0.04 µg/m3
2022-06-02 18:00 2.03 µg/m3 0.81 µg/m3 113.7 µg/m3 13.45 µg/m3 7.12 µg/m3 27.76 °C 35.66 % 3.8 m/s 99.09 Deg 0.1 µg/m3
2022-06-02 17:00 2.56 µg/m3 1.09 µg/m3 114.09 µg/m3 19.19 µg/m3 7.84 µg/m3 28.58 °C 36.24 % 3.52 m/s 82.05 Deg 0.19 µg/m3
2022-06-02 16:00 4.77 µg/m3 1.72 µg/m3 122.7 µg/m3 23.98 µg/m3 9.63 µg/m3 27.86 °C 48.1 % 2.2 m/s 213.41 Deg 0.5 µg/m3
2022-06-02 15:00 7.77 µg/m3 2.21 µg/m3 118.36 µg/m3 22.19 µg/m3 8.86 µg/m3 27.93 °C 52.39 % 2.68 m/s 240.02 Deg 1.06 µg/m3
2022-06-02 14:00 8.01 µg/m3 2.18 µg/m3 114.35 µg/m3 19.13 µg/m3 7.24 µg/m3 29.54 °C 40.2 % 3.07 m/s 88.2 Deg 1.08 µg/m3
2022-06-02 13:00 4.79 µg/m3 2.22 µg/m3 110.89 µg/m3 18.87 µg/m3 7.13 µg/m3 30.47 °C 30.73 % 4.83 m/s 70.55 Deg 0.64 µg/m3
2022-06-02 12:00 10.67 µg/m3 3.19 µg/m3 105.95 µg/m3 24.49 µg/m3 7.37 µg/m3 29.81 °C 40.08 % 3.15 m/s 126.35 Deg 1.8 µg/m3
2022-06-02 11:00 8.31 µg/m3 3.04 µg/m3 106.33 µg/m3 16.58 µg/m3 7.73 µg/m3 29.96 °C 37.27 % 4.59 m/s 256.18 Deg 1.36 µg/m3
2022-06-02 10:00 4.62 µg/m3 2.73 µg/m3 111.57 µg/m3 22.96 µg/m3 8.15 µg/m3 29.52 °C 35.72 % 4.36 m/s 106.26 Deg 0.63 µg/m3
2022-06-02 09:00 9.33 µg/m3 3.64 µg/m3 107.93 µg/m3 27.23 µg/m3 8.75 µg/m3 28.05 °C 40.36 % 4.43 m/s 219.46 Deg 1.35 µg/m3
2022-06-02 08:00 10.8 µg/m3 4.01 µg/m3 104.67 µg/m3 29.78 µg/m3 8.53 µg/m3 26.17 °C 50.98 % 4.49 m/s 240.37 Deg 1.37 µg/m3
2022-06-02 07:00 13.72 µg/m3 3.42 µg/m3 81.81 µg/m3 20.98 µg/m3 7.48 µg/m3 24.74 °C 61.06 % 3.51 m/s 207.75 Deg 1.37 µg/m3
2022-06-02 06:00 13.49 µg/m3 1.61 µg/m3 71.05 µg/m3 26.59 µg/m3 8.18 µg/m3 23.57 °C 67.5 % 3.69 m/s 134.55 Deg 0.67 µg/m3
2022-06-02 05:00 8.84 µg/m3 1.77 µg/m3 82.68 µg/m3 24.74 µg/m3 8.19 µg/m3 25.08 °C 49.37 % 2.11 m/s 211.32 Deg 0.05 µg/m3
2022-06-02 04:00 9.19 µg/m3 1.78 µg/m3 77.26 µg/m3 25.7 µg/m3 8.09 µg/m3 24.97 °C 52.87 % 2.44 m/s 104.64 Deg 0.04 µg/m3
2022-06-02 03:00 7.48 µg/m3 1.15 µg/m3 76.56 µg/m3 24.87 µg/m3 7.79 µg/m3 23.77 °C 61.81 % 2.56 m/s 185.18 Deg 0.04 µg/m3
2022-06-02 02:00 7.44 µg/m3 2.04 µg/m3 87.76 µg/m3 26.47 µg/m3 8.63 µg/m3 24.63 °C 59.61 % 1.53 m/s 256.98 Deg 0.02 µg/m3
2022-06-02 01:00 8.28 µg/m3 2.03 µg/m3 85.96 µg/m3 29.98 µg/m3 9.51 µg/m3 24.76 °C 58.78 % 2.04 m/s 206.68 Deg 0.02 µg/m3
2022-06-02 00:00 12.73 µg/m3 1.89 µg/m3 76.44 µg/m3 32.66 µg/m3 10.73 µg/m3 24.85 °C 53.38 % 1.84 m/s 92.45 Deg 0.04 µg/m3
2022-06-01 23:00 14.18 µg/m3 2.81 µg/m3 83.23 µg/m3 32.72 µg/m3 10.86 µg/m3 25.51 °C 46.32 % 0.85 m/s 204.71 Deg 0.04 µg/m3
2022-06-01 22:00 20.21 µg/m3 2.31 µg/m3 76.67 µg/m3 26.15 µg/m3 9.35 µg/m3 25.63 °C 47.53 % 1.32 m/s 152.67 Deg 0.04 µg/m3
2022-06-01 21:00 11.36 µg/m3 0.62 µg/m3 74.36 µg/m3 23.92 µg/m3 4.18 µg/m3 25.09 °C 63.36 % 1.39 m/s 184.16 Deg 0.02 µg/m3
2022-06-01 20:00 8.25 µg/m3 0.58 µg/m3 75.96 µg/m3 21.49 µg/m3 5.62 µg/m3 26.12 °C 58.64 % 1.2 m/s 160.17 Deg 0.05 µg/m3
2022-06-01 19:00 4.07 µg/m3 0.56 µg/m3 82.76 µg/m3 22.89 µg/m3 7.93 µg/m3 28.3 °C 53.87 % 1.23 m/s 164.28 Deg 0.12 µg/m3
2022-06-01 18:00 4.48 µg/m3 0.58 µg/m3 84.64 µg/m3 22.51 µg/m3 9.24 µg/m3 30.88 °C 40.89 % 1.02 m/s 212.92 Deg 0.37 µg/m3
2022-06-01 17:00 2.67 µg/m3 0.63 µg/m3 88.92 µg/m3 21.17 µg/m3 8.42 µg/m3 30.76 °C 36.23 % 2.57 m/s 230.72 Deg 0.33 µg/m3
2022-06-01 16:00 1.45 µg/m3 0.62 µg/m3 92.22 µg/m3 19 µg/m3 8.07 µg/m3 31.03 °C 35.53 % 2.97 m/s 299.61 Deg 0.7 µg/m3
2022-06-01 15:00 0.84 µg/m3 0.68 µg/m3 92.1 µg/m3 21.62 µg/m3 8.46 µg/m3 32.25 °C 24.97 % 2.48 m/s 78.26 Deg 0.06 µg/m3
2022-06-01 14:00 0.65 µg/m3 0.62 µg/m3 93.2 µg/m3 24.62 µg/m3 8.83 µg/m3 32.3 °C 23.09 % 2.3 m/s 176.43 Deg 0.04 µg/m3
2022-06-01 13:00 0.75 µg/m3 0.61 µg/m3 94.83 µg/m3 32.53 µg/m3 9.34 µg/m3 32.36 °C 23.25 % 2.45 m/s 299.43 Deg 0.06 µg/m3
2022-06-01 12:00 0.68 µg/m3 0.6 µg/m3 108.15 µg/m3 34.63 µg/m3 9.72 µg/m3 31.15 °C 24.9 % 2.46 m/s 146.16 Deg 0.05 µg/m3
2022-06-01 11:00 0.62 µg/m3 0.63 µg/m3 110.77 µg/m3 31.44 µg/m3 9.31 µg/m3 29.77 °C 27.96 % 2.21 m/s 249.39 Deg 0.04 µg/m3
2022-06-01 10:00 0.6 µg/m3 0.68 µg/m3 109.7 µg/m3 38.4 µg/m3 8.9 µg/m3 28.71 °C 31.4 % 1.99 m/s 209.68 Deg 0.03 µg/m3
2022-06-01 09:00 1.89 µg/m3 0.99 µg/m3 96.34 µg/m3 31 µg/m3 9.26 µg/m3 28.75 °C 36.04 % 1.39 m/s 195.88 Deg 0.21 µg/m3
2022-06-01 08:00 2.06 µg/m3 1.22 µg/m3 87.61 µg/m3 15.94 µg/m3 6.28 µg/m3 26.85 °C 46.65 % 1.12 m/s 91.94 Deg 0.21 µg/m3
2022-06-01 07:00 0.41 µg/m3 0.56 µg/m3 78.76 µg/m3 15.17 µg/m3 5.17 µg/m3 24.65 °C 56.92 % 1.57 m/s 171.79 Deg 0.06 µg/m3
2022-06-01 06:00 0.72 µg/m3 0.47 µg/m3 76.32 µg/m3 18.24 µg/m3 5.62 µg/m3 23.58 °C 59.83 % 1.95 m/s 115.98 Deg 0.04 µg/m3
2022-06-01 05:00 0.18 µg/m3 0.45 µg/m3 82.04 µg/m3 18.43 µg/m3 5.56 µg/m3 24.37 °C 53.41 % 2.78 m/s 162.67 Deg 0.01 µg/m3
2022-06-01 04:00 0.15 µg/m3 0.54 µg/m3 82.93 µg/m3 17.02 µg/m3 5.96 µg/m3 25.44 °C 46.72 % 4.14 m/s 80.82 Deg 0.01 µg/m3
2022-06-01 03:00 0.1 µg/m3 0.54 µg/m3 84.1 µg/m3 17.28 µg/m3 5.71 µg/m3 25.88 °C 44.3 % 5.47 m/s 95.13 Deg 0.01 µg/m3
2022-06-01 02:00 0.15 µg/m3 0.57 µg/m3 84.05 µg/m3 11.86 µg/m3 7.85 µg/m3 26.16 °C 42.58 % 5.24 m/s 103.78 Deg 0.01 µg/m3
2022-06-01 01:00 0.3 µg/m3 0.47 µg/m3 75.65 µg/m3 12.88 µg/m3 7 µg/m3 24.6 °C 52.07 % 5.64 m/s 136.14 Deg 0.02 µg/m3
2022-06-01 00:00 0.71 µg/m3 0.95 µg/m3 77.83 µg/m3 13.64 µg/m3 5.28 µg/m3 24.43 °C 54.51 % 5.91 m/s 92.18 Deg 0.02 µg/m3
2022-05-31 23:00 1.18 µg/m3 0.73 µg/m3 81.08 µg/m3 13.32 µg/m3 4.69 µg/m3 24.52 °C 54.47 % 6.06 m/s 84.66 Deg 0.02 µg/m3
2022-05-31 22:00 1.1 µg/m3 0.59 µg/m3 79.81 µg/m3 15.37 µg/m3 5.34 µg/m3 24.42 °C 56.04 % 6.13 m/s 99.44 Deg 0.02 µg/m3
2022-05-31 21:00 0.93 µg/m3 0.55 µg/m3 79.29 µg/m3 17.66 µg/m3 5.37 µg/m3 24.69 °C 53.52 % 4.86 m/s 103.9 Deg 0.02 µg/m3
2022-05-31 20:00 2.28 µg/m3 0.58 µg/m3 89.4 µg/m3 13.2 µg/m3 5.8 µg/m3 24.91 °C 50.76 % 3.11 m/s 123.55 Deg 0.05 µg/m3
2022-05-31 19:00 2.28 µg/m3 0.66 µg/m3 95.69 µg/m3 14.92 µg/m3 4.73 µg/m3 25.51 °C 49.53 % 3.8 m/s 114.38 Deg 0.06 µg/m3
2022-05-31 18:00 4.25 µg/m3 0.98 µg/m3 104.35 µg/m3 11.22 µg/m3 3.71 µg/m3 26.2 °C 52.45 % 2.05 m/s 157.61 Deg 0.36 µg/m3
2022-05-31 17:00 3.61 µg/m3 0.76 µg/m3 100.65 µg/m3 16.9 µg/m3 5.75 µg/m3 27.21 °C 44.22 % 3.52 m/s 139.25 Deg 0.43 µg/m3
2022-05-31 16:00 2.45 µg/m3 0.78 µg/m3 98.42 µg/m3 28.25 µg/m3 7.94 µg/m3 28.27 °C 39.16 % 4.46 m/s 125.38 Deg 0.36 µg/m3
2022-05-31 15:00 3.66 µg/m3 0.87 µg/m3 99.22 µg/m3 26.08 µg/m3 6.9 µg/m3 28.59 °C 40.92 % 3.98 m/s 105.57 Deg 0.61 µg/m3
2022-05-31 14:00 3.24 µg/m3 0.9 µg/m3 98.53 µg/m3 25.7 µg/m3 7.68 µg/m3 28.63 °C 41.13 % 3.8 m/s 91.09 Deg 0.55 µg/m3
2022-05-31 13:00 2.83 µg/m3 0.85 µg/m3 96.36 µg/m3 23.72 µg/m3 6.89 µg/m3 28.26 °C 42.72 % 4.82 m/s 142.48 Deg 0.46 µg/m3
2022-05-31 12:00 3.15 µg/m3 0.9 µg/m3 94.29 µg/m3 20.73 µg/m3 5.7 µg/m3 28.35 °C 40.35 % 7.51 m/s 97.61 Deg 0.51 µg/m3
2022-05-31 11:00 3.37 µg/m3 0.91 µg/m3 84.73 µg/m3 25.06 µg/m3 5.83 µg/m3 27.97 °C 40.78 % 7.59 m/s 73.66 Deg 0.64 µg/m3
2022-05-31 10:00 3.04 µg/m3 0.89 µg/m3 82.21 µg/m3 28.25 µg/m3 6.15 µg/m3 27.33 °C 43.11 % 7.66 m/s 79.85 Deg 0.57 µg/m3
2022-05-31 09:00 7.52 µg/m3 0.92 µg/m3 73.42 µg/m3 25.51 µg/m3 5.93 µg/m3 26.15 °C 47.29 % 7.49 m/s 106.26 Deg 1.68 µg/m3
2022-05-31 08:00 2.09 µg/m3 0.66 µg/m3 75.86 µg/m3 18.49 µg/m3 6.17 µg/m3 25.96 °C 45.45 % 7.01 m/s 88.98 Deg 0.34 µg/m3
2022-05-31 07:00 1.45 µg/m3 0.56 µg/m3 77.85 µg/m3 22.83 µg/m3 6.99 µg/m3 25.53 °C 46.82 % 6.48 m/s 94.98 Deg 0.18 µg/m3
2022-05-31 06:00 1.22 µg/m3 0.61 µg/m3 91.37 µg/m3 27.42 µg/m3 7.33 µg/m3 24.17 °C 56.25 % 6.25 m/s 112.87 Deg 0.05 µg/m3
2022-05-31 05:00 1.57 µg/m3 0.62 µg/m3 102.2 µg/m3 22.06 µg/m3 6.98 µg/m3 23.96 °C 57.88 % 5.08 m/s 55.22 Deg 0.02 µg/m3
2022-05-31 04:00 2.27 µg/m3 0.53 µg/m3 95.08 µg/m3 21.81 µg/m3 6.53 µg/m3 23.76 °C 58.65 % 2.58 m/s 96.96 Deg 0.02 µg/m3
2022-05-31 03:00 1.5 µg/m3 0.42 µg/m3 96.4 µg/m3 14.98 µg/m3 6.22 µg/m3 22.98 °C 66.24 % 2.01 m/s 96.08 Deg 0.02 µg/m3
2022-05-31 02:00 1.38 µg/m3 0.35 µg/m3 92.01 µg/m3 14.15 µg/m3 6.01 µg/m3 21.99 °C 77.47 % 1.65 m/s 153.65 Deg 0.02 µg/m3
2022-05-31 01:00 0.62 µg/m3 0.35 µg/m3 83.13 µg/m3 18.81 µg/m3 7.16 µg/m3 21.43 °C 81.47 % 3.49 m/s 171.48 Deg 0.02 µg/m3
2022-05-31 00:00 1.06 µg/m3 0.55 µg/m3 83.46 µg/m3 17.79 µg/m3 5.69 µg/m3 23.78 °C 59.78 % 6.38 m/s 125.47 Deg 0.02 µg/m3
2022-05-30 23:00 0.93 µg/m3 0.54 µg/m3 98.55 µg/m3 19.51 µg/m3 5.07 µg/m3 23.43 °C 62.48 % 7.59 m/s 60.46 Deg 0.02 µg/m3
2022-05-30 22:00 2.72 µg/m3 0.63 µg/m3 108.56 µg/m3 19.83 µg/m3 5.17 µg/m3 23.42 °C 63.06 % 6.79 m/s 98.04 Deg 0.01 µg/m3
2022-05-30 21:00 1.59 µg/m3 0.56 µg/m3 115.65 µg/m3 16.32 µg/m3 5.25 µg/m3 23.31 °C 63.63 % 7.41 m/s 87.45 Deg 0.02 µg/m3
2022-05-30 20:00 1.16 µg/m3 0.61 µg/m3 106.65 µg/m3 20.66 µg/m3 5.26 µg/m3 23.16 °C 64.61 % 7.31 m/s 82.49 Deg 0.03 µg/m3
2022-05-30 19:00 1.43 µg/m3 0.72 µg/m3 111.48 µg/m3 20.02 µg/m3 5.47 µg/m3 23.64 °C 64.29 % 7.22 m/s 109.16 Deg 0.07 µg/m3
2022-05-30 18:00 1.84 µg/m3 0.83 µg/m3 118.44 µg/m3 18.68 µg/m3 6.07 µg/m3 24.21 °C 63.08 % 6.37 m/s 94.84 Deg 0.11 µg/m3
2022-05-30 17:00 2.65 µg/m3 0.71 µg/m3 126.28 µg/m3 15.17 µg/m3 5.47 µg/m3 24.6 °C 60.25 % 8.06 m/s 90.06 Deg 0.21 µg/m3
2022-05-30 16:00 4.55 µg/m3 0.81 µg/m3 117.8 µg/m3 26.66 µg/m3 5.14 µg/m3 25.6 °C 51.2 % 8.24 m/s 67.55 Deg 0.48 µg/m3
2022-05-30 15:00 5.97 µg/m3 0.73 µg/m3 101.7 µg/m3 18.75 µg/m3 3.62 µg/m3 26.16 °C 44.32 % 8.68 m/s 141.53 Deg 0.77 µg/m3
2022-05-30 14:00 3.44 µg/m3 0.7 µg/m3 98.66 µg/m3 14.09 µg/m3 3.89 µg/m3 26.49 °C 41.71 % 9.83 m/s 70.11 Deg 0.51 µg/m3
2022-05-30 13:00 3.28 µg/m3 0.63 µg/m3 94.79 µg/m3 9.37 µg/m3 3.94 µg/m3 26.85 °C 36.49 % 8.38 m/s 75.49 Deg 0.37 µg/m3
2022-05-30 12:00 2.07 µg/m3 0.51 µg/m3 91.15 µg/m3 8.67 µg/m3 4.79 µg/m3 28.35 °C 30.29 % 7.89 m/s 89.82 Deg 0.33 µg/m3
2022-05-30 11:00 3.31 µg/m3 0.7 µg/m3 95.57 µg/m3 8.86 µg/m3 3.8 µg/m3 27.38 °C 37.12 % 7.11 m/s 83.79 Deg 0.5 µg/m3
2022-05-30 10:00 3.35 µg/m3 0.64 µg/m3 93.59 µg/m3 20.21 µg/m3 3.45 µg/m3 25.46 °C 47.25 % 6.52 m/s 137.3 Deg 0.61 µg/m3
2022-05-30 09:00 3.4 µg/m3 0.7 µg/m3 92.66 µg/m3 12.18 µg/m3 2.98 µg/m3 24.5 °C 50.7 % 6.01 m/s 99.76 Deg 0.67 µg/m3
2022-05-30 08:00 5.39 µg/m3 0.75 µg/m3 90.96 µg/m3 12.43 µg/m3 3.98 µg/m3 24.57 °C 47.56 % 5.61 m/s 122.78 Deg 0.95 µg/m3
2022-05-30 07:00 1.9 µg/m3 0.8 µg/m3 93.2 µg/m3 2.99 µg/m3 3.63 µg/m3 24.86 °C 40.35 % 4.08 m/s 159.83 Deg 0.2 µg/m3
2022-05-30 06:00 1.49 µg/m3 0.82 µg/m3 94.45 µg/m3 3.75 µg/m3 3.7 µg/m3 22.93 °C 51.09 % 4.24 m/s 96.34 Deg 0.09 µg/m3
2022-05-30 05:00 2.01 µg/m3 0.54 µg/m3 93.05 µg/m3 3.05 µg/m3 3.63 µg/m3 22.36 °C 55.59 % 3.64 m/s 90.68 Deg 0.03 µg/m3
2022-05-30 04:00 1.96 µg/m3 0.48 µg/m3 94.71 µg/m3 6.31 µg/m3 3.64 µg/m3 21.62 °C 65.45 % 4.08 m/s 148.31 Deg 0.04 µg/m3
2022-05-30 03:00 1.18 µg/m3 0.47 µg/m3 97.22 µg/m3 4.65 µg/m3 3.52 µg/m3 21.44 °C 66.57 % 4.67 m/s 122.14 Deg 0.03 µg/m3
2022-05-30 02:00 1.56 µg/m3 0.45 µg/m3 96.16 µg/m3 6.75 µg/m3 3.69 µg/m3 22.3 °C 55.69 % 3.22 m/s 80.69 Deg 0.04 µg/m3
2022-05-30 01:00 1.17 µg/m3 0.49 µg/m3 99.72 µg/m3 7.71 µg/m3 4 µg/m3 21.94 °C 59.88 % 3.63 m/s 55.19 Deg 0.05 µg/m3
2022-05-30 00:00 0.73 µg/m3 0.46 µg/m3 100.68 µg/m3 8.67 µg/m3 3.45 µg/m3 21.58 °C 66.45 % 3.94 m/s 102.65 Deg 0.04 µg/m3
2022-05-29 23:00 0.55 µg/m3 0.41 µg/m3 98.52 µg/m3 7.9 µg/m3 3.73 µg/m3 20.82 °C 78.23 % 4.01 m/s 157.2 Deg 0.04 µg/m3
2022-05-29 22:00 3.17 µg/m3 0.43 µg/m3 95.14 µg/m3 10.84 µg/m3 4.6 µg/m3 20.39 °C 84.3 % 4.33 m/s 136.21 Deg 0.06 µg/m3
2022-05-29 21:00 0.76 µg/m3 0.39 µg/m3 105.44 µg/m3 10.77 µg/m3 4.66 µg/m3 20.16 °C 87.61 % 3.64 m/s 191.47 Deg 0.05 µg/m3
2022-05-29 20:00 1.16 µg/m3 0.55 µg/m3 111.94 µg/m3 11.28 µg/m3 5.69 µg/m3 20.44 °C 82.88 % 3.55 m/s 177.84 Deg 0.05 µg/m3
2022-05-29 19:00 3.25 µg/m3 0.55 µg/m3 109.63 µg/m3 13.39 µg/m3 5.32 µg/m3 20.82 °C 81.52 % 3.49 m/s 78.69 Deg 0.13 µg/m3
2022-05-29 18:00 0.74 µg/m3 0.35 µg/m3 111.66 µg/m3 12.3 µg/m3 5.21 µg/m3 21.13 °C 81.47 % 4.18 m/s 180.12 Deg 0.12 µg/m3
2022-05-29 17:00 1.04 µg/m3 0.41 µg/m3 114.21 µg/m3 12.49 µg/m3 5.36 µg/m3 21.44 °C 78.97 % 5.67 m/s 159.83 Deg 0.16 µg/m3
2022-05-29 16:00 1.22 µg/m3 0.45 µg/m3 114.4 µg/m3 11.86 µg/m3 4.46 µg/m3 21.38 °C 77.71 % 6.58 m/s 154.81 Deg 0.21 µg/m3
2022-05-29 15:00 1.17 µg/m3 0.42 µg/m3 112.51 µg/m3 16.45 µg/m3 5.9 µg/m3 21.19 °C 78.21 % 7.31 m/s 147.67 Deg 0.21 µg/m3
2022-05-29 14:00 2.05 µg/m3 0.49 µg/m3 113.82 µg/m3 17.66 µg/m3 6.52 µg/m3 20.89 °C 83.53 % 6.89 m/s 189.32 Deg 0.36 µg/m3
2022-05-29 13:00 2.49 µg/m3 0.51 µg/m3 109.55 µg/m3 16.77 µg/m3 6.75 µg/m3 20.45 °C 87.56 % 6.63 m/s 147.48 Deg 0.38 µg/m3
2022-05-29 12:00 4.08 µg/m3 0.47 µg/m3 99.48 µg/m3 18.43 µg/m3 7.23 µg/m3 20.42 °C 87.24 % 6.45 m/s 149.91 Deg 0.72 µg/m3
2022-05-29 11:00 2.96 µg/m3 0.45 µg/m3 95.17 µg/m3 18.56 µg/m3 6.52 µg/m3 20.2 °C 87.29 % 5.59 m/s 214.13 Deg 0.47 µg/m3
2022-05-29 10:00 2.7 µg/m3 0.39 µg/m3 87.65 µg/m3 12.49 µg/m3 5.85 µg/m3 19.9 °C 88.94 % 5.56 m/s 176.26 Deg 0.46 µg/m3
2022-05-29 09:00 3.61 µg/m3 0.37 µg/m3 90.07 µg/m3 7.97 µg/m3 4.92 µg/m3 19.79 °C 90.51 % 5.14 m/s 256.4 Deg 0.65 µg/m3
2022-05-29 08:00 5.42 µg/m3 0.39 µg/m3 92.59 µg/m3 5.6 µg/m3 3.59 µg/m3 19.44 °C 90.24 % 5.09 m/s 204.57 Deg 0.97 µg/m3
2022-05-29 07:00 4.47 µg/m3 0.34 µg/m3 93.08 µg/m3 5.29 µg/m3 2.91 µg/m3 18.88 °C 91.95 % 5.85 m/s 282.97 Deg 0.42 µg/m3
2022-05-29 06:00 5.46 µg/m3 0.33 µg/m3 91.2 µg/m3 5.8 µg/m3 3.19 µg/m3 18.71 °C 93.76 % 6.05 m/s 300.23 Deg 0.17 µg/m3
2022-05-29 05:00 2.5 µg/m3 0.29 µg/m3 92.95 µg/m3 2.48 µg/m3 3.22 µg/m3 18.61 °C 92.9 % 5.37 m/s 284.65 Deg 0.08 µg/m3
2022-05-29 04:00 1.96 µg/m3 0.27 µg/m3 92.85 µg/m3 8.22 µg/m3 3.62 µg/m3 18.58 °C 91.76 % 5.2 m/s 279.83 Deg 0.04 µg/m3
2022-05-29 03:00 0.76 µg/m3 0.28 µg/m3 99.7 µg/m3 7.33 µg/m3 5.2 µg/m3 18.62 °C 93.21 % 5.9 m/s 264.19 Deg 0.03 µg/m3
2022-05-29 02:00 0.76 µg/m3 0.32 µg/m3 98.24 µg/m3 11.47 µg/m3 6.45 µg/m3 18.25 °C 99.73 % 6.59 m/s 267.18 Deg 0.02 µg/m3
2022-05-29 01:00 0.38 µg/m3 0.3 µg/m3 109.14 µg/m3 13.45 µg/m3 6.39 µg/m3 19.32 °C 91.46 % 7.51 m/s 235.2 Deg 0 µg/m3
2022-05-29 00:00 0.33 µg/m3 0.3 µg/m3 108.64 µg/m3 11.54 µg/m3 5.76 µg/m3 19.61 °C 88.93 % 8.59 m/s 221.58 Deg 0.01 µg/m3
2022-05-28 23:00 0.34 µg/m3 0.28 µg/m3 106.87 µg/m3 9.75 µg/m3 4.12 µg/m3 19.63 °C 87.93 % 9.03 m/s 212.62 Deg 0.01 µg/m3
2022-05-28 22:00 0.16 µg/m3 0.29 µg/m3 107.2 µg/m3 7.14 µg/m3 3.8 µg/m3 19.8 °C 88.32 % 6.76 m/s 224.44 Deg 0.01 µg/m3
2022-05-28 21:00 0.06 µg/m3 0.3 µg/m3 105.89 µg/m3 8.41 µg/m3 3.46 µg/m3 19.75 °C 90.16 % 6.38 m/s 208.14 Deg 0.01 µg/m3
2022-05-28 20:00 0.07 µg/m3 0.23 µg/m3 99.79 µg/m3 5.09 µg/m3 3.02 µg/m3 19.76 °C 93.22 % 5.9 m/s 206.66 Deg 0.01 µg/m3
2022-05-28 19:00 -0.06 µg/m3 0.28 µg/m3 100.13 µg/m3 5.73 µg/m3 3.19 µg/m3 19.78 °C 92.01 % 5.31 m/s 189.69 Deg 0.01 µg/m3
2022-05-28 18:00 0.01 µg/m3 0.31 µg/m3 102.14 µg/m3 7.52 µg/m3 3.71 µg/m3 20 °C 89.73 % 4.83 m/s 200.49 Deg 0.01 µg/m3
2022-05-28 17:00 0.15 µg/m3 0.4 µg/m3 104.3 µg/m3 6.82 µg/m3 3.71 µg/m3 20.68 °C 85.65 % 5.13 m/s 153.34 Deg 0.03 µg/m3
2022-05-28 16:00 0.28 µg/m3 0.38 µg/m3 104.85 µg/m3 7.14 µg/m3 3.87 µg/m3 20.56 °C 86.92 % 5.2 m/s 139.05 Deg 0.03 µg/m3
2022-05-28 15:00 0.48 µg/m3 0.39 µg/m3 105.65 µg/m3 6.24 µg/m3 3.97 µg/m3 20.77 °C 84.69 % 5.21 m/s 127.69 Deg 0.04 µg/m3
2022-05-28 14:00 0.69 µg/m3 0.46 µg/m3 103.8 µg/m3 8.79 µg/m3 3.99 µg/m3 20.91 °C 81.37 % 5.52 m/s 209.1 Deg 0.06 µg/m3
2022-05-28 13:00 1.05 µg/m3 0.48 µg/m3 105.11 µg/m3 6.11 µg/m3 3.46 µg/m3 20.53 °C 81.7 % 4.83 m/s 158.7 Deg 0.09 µg/m3
2022-05-28 12:00 1.21 µg/m3 0.49 µg/m3 103.77 µg/m3 4.65 µg/m3 3.57 µg/m3 20.66 °C 79.13 % 4.17 m/s 171.45 Deg 0.1 µg/m3
2022-05-28 11:00 1.35 µg/m3 0.48 µg/m3 101.91 µg/m3 2.8 µg/m3 3.21 µg/m3 20.5 °C 78.01 % 4.88 m/s 168.69 Deg 0.14 µg/m3
2022-05-28 10:00 1.56 µg/m3 0.5 µg/m3 100.41 µg/m3 6.18 µg/m3 4.11 µg/m3 20.7 °C 76.81 % 5.04 m/s 188.76 Deg 0.18 µg/m3
2022-05-28 09:00 2.36 µg/m3 0.49 µg/m3 98.85 µg/m3 5.35 µg/m3 4.11 µg/m3 20.51 °C 77.5 % 4.68 m/s 184 Deg 0.32 µg/m3
2022-05-28 08:00 2.92 µg/m3 0.44 µg/m3 97.7 µg/m3 5.09 µg/m3 3.78 µg/m3 19.88 °C 80.77 % 4.2 m/s 157.75 Deg 0.42 µg/m3
2022-05-28 07:00 4.72 µg/m3 0.39 µg/m3 96.8 µg/m3 7.39 µg/m3 3.6 µg/m3 19.47 °C 80.6 % 4.79 m/s 246.57 Deg 0.44 µg/m3
2022-05-28 06:00 9.05 µg/m3 0.41 µg/m3 91.69 µg/m3 8.28 µg/m3 3.15 µg/m3 18.96 °C 85.32 % 4.92 m/s 294.9 Deg 0.33 µg/m3
2022-05-28 05:00 5.36 µg/m3 0.39 µg/m3 96.52 µg/m3 9.05 µg/m3 3.22 µg/m3 18.58 °C 93.33 % 4.9 m/s 303.72 Deg 0.02 µg/m3
2022-05-28 04:00 5.23 µg/m3 0.39 µg/m3 95.19 µg/m3 13.83 µg/m3 4.52 µg/m3 18.68 °C 98.05 % 5.17 m/s 302.52 Deg 0.03 µg/m3
2022-05-28 03:00 10.45 µg/m3 0.58 µg/m3 74.6 µg/m3 13.07 µg/m3 4.37 µg/m3 19.03 °C 96.97 % 4.71 m/s 293.5 Deg 0.05 µg/m3
2022-05-28 02:00 10.25 µg/m3 0.49 µg/m3 77.18 µg/m3 12.81 µg/m3 4.23 µg/m3 18.95 °C 97.97 % 3.96 m/s 295.68 Deg 0.06 µg/m3
2022-05-28 01:00 8.63 µg/m3 0.48 µg/m3 79.83 µg/m3 10.9 µg/m3 4.69 µg/m3 19.22 °C 99.37 % 3.78 m/s 295.47 Deg 0.04 µg/m3
2022-05-28 00:00 5.84 µg/m3 0.33 µg/m3 81.93 µg/m3 15.24 µg/m3 4.83 µg/m3 19.47 °C 98.67 % 3.53 m/s 284.8 Deg 0.03 µg/m3
2022-05-27 23:00 1.2 µg/m3 0.28 µg/m3 88.35 µg/m3 8.99 µg/m3 5.13 µg/m3 19.41 °C 96.53 % 3.03 m/s 283.93 Deg 0.01 µg/m3
2022-05-27 22:00 0.95 µg/m3 0.34 µg/m3 90.22 µg/m3 23.34 µg/m3 5.53 µg/m3 19.52 °C 95.22 % 2.35 m/s 259.04 Deg 0 µg/m3
2022-05-27 21:00 1.13 µg/m3 0.33 µg/m3 92.29 µg/m3 86.82 µg/m3 7.25 µg/m3 19.98 °C 91.65 % 1.77 m/s 259.16 Deg 0.01 µg/m3
2022-05-27 20:00 3.75 µg/m3 0.39 µg/m3 95.41 µg/m3 31.06 µg/m3 7.9 µg/m3 20.49 °C 88.85 % 1.7 m/s 213.78 Deg 0.26 µg/m3
2022-05-27 19:00 1.87 µg/m3 0.45 µg/m3 98.62 µg/m3 23.47 µg/m3 7.75 µg/m3 21.46 °C 83.02 % 3.59 m/s 182.49 Deg 0.04 µg/m3
2022-05-27 18:00 4.58 µg/m3 0.45 µg/m3 96.94 µg/m3 24.55 µg/m3 7.03 µg/m3 22.67 °C 76.13 % 4.52 m/s 76.93 Deg 0.32 µg/m3
2022-05-27 17:00 2.61 µg/m3 0.53 µg/m3 101.01 µg/m3 22 µg/m3 7.54 µg/m3 23.48 °C 69.66 % 5.68 m/s 25.21 Deg 0.28 µg/m3
2022-05-27 16:00 3.32 µg/m3 0.64 µg/m3 103.07 µg/m3 24.49 µg/m3 8.32 µg/m3 24.44 °C 64.8 % 5.51 m/s 24.74 Deg 0.42 µg/m3
2022-05-27 15:00 2.76 µg/m3 0.57 µg/m3 104.12 µg/m3 24.94 µg/m3 6.84 µg/m3 24.11 °C 67.48 % 4.94 m/s 138.52 Deg 0.34 µg/m3
2022-05-27 14:00 5.63 µg/m3 0.72 µg/m3 102.27 µg/m3 20.47 µg/m3 7.2 µg/m3 24.93 °C 59.28 % 6.1 m/s 58.21 Deg 0.65 µg/m3
2022-05-27 13:00 2.89 µg/m3 0.63 µg/m3 102.33 µg/m3 15.05 µg/m3 3.32 µg/m3 23.89 °C 63.33 % 9.88 m/s 49.39 Deg 0.35 µg/m3
2022-05-27 12:00 2.31 µg/m3 0.55 µg/m3 101.87 µg/m3 22.64 µg/m3 5.87 µg/m3 23.21 °C 65.45 % 12.1 m/s 32.5 Deg 0.17 µg/m3
2022-05-27 11:00 4.47 µg/m3 0.56 µg/m3 97.05 µg/m3 34.95 µg/m3 5.48 µg/m3 23.58 °C 62.72 % 12.65 m/s 19.33 Deg 0.37 µg/m3
2022-05-27 10:00 3.6 µg/m3 0.52 µg/m3 93.62 µg/m3 -0.78 µg/m3 3.18 µg/m3 23.6 °C 61.67 % 14.3 m/s 50.62 Deg 0.37 µg/m3
2022-05-27 09:00 4.64 µg/m3 0 µg/m3 0 µg/m3 -0.78 µg/m3 2.63 µg/m3 22.4 °C 67.39 % 13.24 m/s 18.62 Deg 0.14 µg/m3
2022-05-27 08:00 4.59 µg/m3 0.54 µg/m3 91.55 µg/m3 5.25 µg/m3 2.63 µg/m3 22.52 °C 67.33 % 10.42 m/s 9.76 Deg 0.22 µg/m3
2022-05-27 07:00 3.28 µg/m3 0.51 µg/m3 97.54 µg/m3 7.58 µg/m3 5.57 µg/m3 22.3 °C 67.24 % 11.01 m/s 68.87 Deg 0.16 µg/m3
2022-05-27 06:00 2.81 µg/m3 0.53 µg/m3 99.85 µg/m3 7.71 µg/m3 4.81 µg/m3 21.57 °C 71.8 % 8.4 m/s 55.26 Deg 0.03 µg/m3
2022-05-27 05:00 5.49 µg/m3 0.63 µg/m3 94.56 µg/m3 6.88 µg/m3 5.19 µg/m3 21.72 °C 68.31 % 8.11 m/s 52.17 Deg 0.02 µg/m3
2022-05-27 04:00 0.7 µg/m3 0.43 µg/m3 104.33 µg/m3 4.33 µg/m3 4.87 µg/m3 21.65 °C 68.37 % 8.16 m/s 138.18 Deg 0.01 µg/m3
2022-05-27 03:00 1.37 µg/m3 0.43 µg/m3 101.88 µg/m3 5.03 µg/m3 5.29 µg/m3 21.55 °C 69.03 % 8.85 m/s 65.32 Deg 0.01 µg/m3
2022-05-27 02:00 1.64 µg/m3 0.48 µg/m3 97.78 µg/m3 6.88 µg/m3 5.02 µg/m3 21.48 °C 71.29 % 8.94 m/s 77.41 Deg 0 µg/m3
2022-05-27 01:00 1.06 µg/m3 0.47 µg/m3 96.89 µg/m3 8.16 µg/m3 4.98 µg/m3 21.77 °C 69.65 % 9.91 m/s 44.59 Deg 0.01 µg/m3
2022-05-27 00:00 2.16 µg/m3 0.58 µg/m3 94.95 µg/m3 7.33 µg/m3 5.19 µg/m3 22.59 °C 62.09 % 10.03 m/s 80.23 Deg 0.01 µg/m3
2022-05-26 23:00 1.72 µg/m3 0.43 µg/m3 96.49 µg/m3 5.86 µg/m3 5.05 µg/m3 22.35 °C 64.49 % 8.26 m/s 27.39 Deg 0.02 µg/m3
2022-05-26 22:00 0.89 µg/m3 0.46 µg/m3 99.56 µg/m3 8.6 µg/m3 5.54 µg/m3 23.07 °C 58.65 % 7.91 m/s 47.39 Deg 0.01 µg/m3
2022-05-26 21:00 2.71 µg/m3 0.52 µg/m3 97.14 µg/m3 7.77 µg/m3 5.87 µg/m3 24.15 °C 50.82 % 6.97 m/s 12.87 Deg 0.01 µg/m3
2022-05-26 20:00 5.76 µg/m3 0.56 µg/m3 92.93 µg/m3 10.39 µg/m3 6.57 µg/m3 23.73 °C 57.85 % 8.36 m/s 11.64 Deg 0.03 µg/m3
2022-05-26 19:00 2.6 µg/m3 0.47 µg/m3 94.08 µg/m3 16.45 µg/m3 5.35 µg/m3 23.3 °C 64.64 % 8.68 m/s 38.97 Deg 0.07 µg/m3
2022-05-26 18:00 7.53 µg/m3 0.58 µg/m3 89.84 µg/m3 14.22 µg/m3 5.07 µg/m3 25.44 °C 50.09 % 9.17 m/s 61.31 Deg 0.36 µg/m3
2022-05-26 17:00 8.63 µg/m3 0.7 µg/m3 90.45 µg/m3 15.62 µg/m3 5.16 µg/m3 25.96 °C 53.09 % 7.33 m/s 70.8 Deg 0.55 µg/m3
2022-05-26 16:00 11 µg/m3 0.93 µg/m3 93.1 µg/m3 19.7 µg/m3 5.76 µg/m3 27.98 °C 47.32 % 5.49 m/s 32.97 Deg 1.28 µg/m3
2022-05-26 15:00 8.3 µg/m3 1.02 µg/m3 100.35 µg/m3 25.7 µg/m3 6.38 µg/m3 29.7 °C 36.43 % 6.66 m/s 25.73 Deg 1.14 µg/m3
2022-05-26 14:00 9.49 µg/m3 1.18 µg/m3 101.31 µg/m3 25.96 µg/m3 5.82 µg/m3 30.56 °C 32.85 % 5.76 m/s -16.81 Deg 1.39 µg/m3
2022-05-26 13:00 8.62 µg/m3 1.18 µg/m3 103.96 µg/m3 22.38 µg/m3 4.83 µg/m3 30.29 °C 34.49 % 5.85 m/s 14.97 Deg 1.33 µg/m3
2022-05-26 12:00 8.88 µg/m3 1.03 µg/m3 104.18 µg/m3 15.49 µg/m3 4.79 µg/m3 28.89 °C 39.04 % 7.18 m/s 63.93 Deg 1.39 µg/m3
2022-05-26 11:00 8.51 µg/m3 0.97 µg/m3 101.2 µg/m3 16.58 µg/m3 5.95 µg/m3 28.16 °C 44.39 % 6.93 m/s 81.46 Deg 1.4 µg/m3
2022-05-26 10:00 9.14 µg/m3 0.91 µg/m3 99 µg/m3 14.35 µg/m3 5.74 µg/m3 26.99 °C 44.66 % 7.31 m/s 50.06 Deg 1.55 µg/m3

It is to be noted that the data is provisional and subject to quality assurance procedures. For validated data kindly refer your request to contact.air@era.org.mt